Time,TemperatureF,DewpointF,PressureIn,WindDirection,WindDirectionDegrees,WindSpeedMPH,WindSpeedGustMPH,Humidity,HourlyPrecipIn,Conditions,Clouds,dailyrainin,SolarRadiationWatts/m^2,SoftwareType,DateUTC
2013-09-17 00:01:00,50.3,41.3,30.39,NE,42,3.0,6.0,71,0.00,,,0.00,0,Wunderground v.1.15,2013-09-17 04:01:00,
2013-09-17 00:03:00,50.1,41.1,30.39,WNW,288,3.0,6.0,71,0.00,,,0.00,0,Wunderground v.1.15,2013-09-17 04:03:00,
2013-09-17 00:04:00,50.1,41.1,30.39,West,260,3.0,6.0,71,0.00,,,0.00,0,Wunderground v.1.15,2013-09-17 04:04:00,
2013-09-17 00:07:00,49.9,40.5,30.39,WNW,298,3.0,6.0,70,0.00,,,0.00,0,Wunderground v.1.15,2013-09-17 04:07:00,
2013-09-17 00:08:00,49.9,40.9,30.40,WNW,293,3.0,6.0,71,0.00,,,0.00,0,Wunderground v.1.15,2013-09-17 04:08:00,
2013-09-17 00:10:00,49.8,40.4,30.40,NW,321,3.0,3.0,70,0.00,,,0.00,0,Wunderground v.1.15,2013-09-17 04:10:00,
2013-09-17 00:13:00,49.7,40.7,30.40,NNW,332,2.0,3.0,71,0.00,,,0.00,0,Wunderground v.1.15,2013-09-17 04:13:00,
2013-09-17 00:16:00,49.6,40.2,30.40,NNW,345,2.0,3.0,70,0.00,,,0.00,0,Wunderground v.1.15,2013-09-17 04:16:00,
2013-09-17 00:17:00,49.6,40.2,30.40,NW,309,2.0,3.0,70,0.00,,,0.00,0,Wunderground v.1.15,2013-09-17 04:17:00,
2013-09-17 00:21:00,49.5,40.5,30.40,North,9,1.0,2.0,71,0.00,,,0.00,0,Wunderground v.1.15,2013-09-17 04:21:00,
2013-09-17 00:22:00,49.4,40.4,30.40,NNW,329,1.0,2.0,71,0.00,,,0.00,0,Wunderground v.1.15,2013-09-17 04:22:00,
2013-09-17 00:23:00,49.4,40.4,30.40,North,11,1.0,2.0,71,0.00,,,0.00,0,Wunderground v.1.15,2013-09-17 04:23:00,
2013-09-17 00:26:00,49.4,40.0,30.40,North,11,1.0,2.0,70,0.00,,,0.00,0,Wunderground v.1.15,2013-09-17 04:26:00,
2013-09-17 00:28:00,49.3,40.3,30.40,NNE,14,1.0,2.0,71,0.00,,,0.00,0,Wunderground v.1.15,2013-09-17 04:28:00,
2013-09-17 00:30:00,49.3,40.3,30.40,North,9,1.0,1.0,71,0.00,,,0.00,0,Wunderground v.1.15,2013-09-17 04:30:00,
2013-09-17 00:31:00,49.2,40.2,30.40,NE,48,1.0,2.0,71,0.00,,,0.00,0,Wunderground v.1.15,2013-09-17 04:31:00,
2013-09-17 00:35:00,49.1,40.1,30.40,North,355,1.0,2.0,71,0.00,,,0.00,0,Wunderground v.1.15,2013-09-17 04:35:00,
2013-09-17 00:36:00,49.1,40.1,30.40,NW,326,1.0,2.0,71,0.00,,,0.00,0,Wunderground v.1.15,2013-09-17 04:36:00,
2013-09-17 00:37:00,49.0,40.0,30.40,NW,308,1.0,2.0,71,0.00,,,0.00,0,Wunderground v.1.15,2013-09-17 04:37:00,
2013-09-17 00:40:00,48.9,39.9,30.40,WNW,291,1.0,1.0,71,0.00,,,0.00,0,Wunderground v.1.15,2013-09-17 04:40:00,
2013-09-17 00:42:00,48.8,39.8,30.40,NW,318,1.0,2.0,71,0.00,,,0.00,0,Wunderground v.1.15,2013-09-17 04:42:00,
2013-09-17 00:43:00,48.8,40.2,30.40,NW,318,1.0,2.0,72,0.00,,,0.00,0,Wunderground v.1.15,2013-09-17 04:43:00,
2013-09-17 00:45:00,48.7,40.1,30.40,West,281,2.0,3.0,72,0.00,,,0.00,0,Wunderground v.1.15,2013-09-17 04:45:00,
2013-09-17 00:47:00,48.6,40.0,30.40,WNW,298,1.0,3.0,72,0.00,,,0.00,0,Wunderground v.1.15,2013-09-17 04:47:00,
2013-09-17 00:48:00,48.6,40.0,30.40,NW,307,1.0,3.0,72,0.00,,,0.00,0,Wunderground v.1.15,2013-09-17 04:48:00,
2013-09-17 00:49:00,48.5,39.9,30.40,WNW,300,1.0,1.0,72,0.00,,,0.00,0,Wunderground v.1.15,2013-09-17 04:49:00,
2013-09-17 00:54:00,48.4,40.1,30.40,SW,234,1.0,1.0,73,0.00,,,0.00,0,Wunderground v.1.15,2013-09-17 04:54:00,
2013-09-17 00:55:00,48.4,39.8,30.40,North,350,1.0,2.0,72,0.00,,,0.00,0,Wunderground v.1.15,2013-09-17 04:55:00,
2013-09-17 00:57:00,48.3,39.7,30.40,NW,319,1.0,2.0,72,0.00,,,0.00,0,Wunderground v.1.15,2013-09-17 04:57:00,
2013-09-17 01:01:00,48.2,39.9,30.40,WNW,291,1.0,1.0,73,0.00,,,0.00,0,Wunderground v.1.15,2013-09-17 05:01:00,
2013-09-17 01:03:00,48.1,39.9,30.40,West,263,1.0,1.0,73,0.00,,,0.00,0,Wunderground v.1.15,2013-09-17 05:03:00,
2013-09-17 01:05:00,48.1,39.9,30.40,WNW,283,1.0,1.0,73,0.00,,,0.00,0,Wunderground v.1.15,2013-09-17 05:05:00,
2013-09-17 01:06:00,48.1,39.9,30.40,WNW,282,1.0,1.0,73,0.00,,,0.00,0,Wunderground v.1.15,2013-09-17 05:06:00,
2013-09-17 01:10:00,48.0,39.8,30.40,West,279,1.0,1.0,73,0.00,,,0.00,0,Wunderground v.1.15,2013-09-17 05:10:00,
2013-09-17 01:11:00,48.0,39.8,30.40,West,279,0.0,1.0,73,0.00,,,0.00,0,Wunderground v.1.15,2013-09-17 05:11:00,
2013-09-17 01:12:00,47.9,39.7,30.40,West,279,0.0,1.0,73,0.00,,,0.00,0,Wunderground v.1.15,2013-09-17 05:12:00,
2013-09-17 01:14:00,47.9,39.7,30.41,West,279,0.0,1.0,73,0.00,,,0.00,0,Wunderground v.1.15,2013-09-17 05:14:00,
2013-09-17 01:15:00,47.9,39.7,30.40,West,279,0.0,1.0,73,0.00,,,0.00,0,Wunderground v.1.15,2013-09-17 05:15:00,
2013-09-17 01:19:00,47.8,39.9,30.41,West,261,0.0,1.0,74,0.00,,,0.00,0,Wunderground v.1.15,2013-09-17 05:19:00,
2013-09-17 01:22:00,47.7,39.8,30.41,WNW,290,0.0,1.0,74,0.00,,,0.00,0,Wunderground v.1.15,2013-09-17 05:22:00,
2013-09-17 01:24:00,47.7,39.8,30.41,WNW,290,0.0,1.0,74,0.00,,,0.00,0,Wunderground v.1.15,2013-09-17 05:24:00,
2013-09-17 01:25:00,47.6,39.7,30.41,WNW,290,0.0,1.0,74,0.00,,,0.00,0,Wunderground v.1.15,2013-09-17 05:25:00,
2013-09-17 01:26:00,47.6,39.7,30.41,WNW,290,0.0,1.0,74,0.00,,,0.00,0,Wunderground v.1.15,2013-09-17 05:26:00,
2013-09-17 01:28:00,47.6,40.1,30.41,WNW,290,0.0,1.0,75,0.00,,,0.00,0,Wunderground v.1.15,2013-09-17 05:28:00,
2013-09-17 01:29:00,47.5,40.0,30.41,WNW,290,0.0,1.0,75,0.00,,,0.00,0,Wunderground v.1.15,2013-09-17 05:29:00,
2013-09-17 01:30:00,47.5,40.0,30.41,WNW,286,0.0,2.0,75,0.00,,,0.00,0,Wunderground v.1.15,2013-09-17 05:30:00,
2013-09-17 01:32:00,47.4,39.9,30.41,West,271,1.0,2.0,75,0.00,,,0.00,0,Wunderground v.1.15,2013-09-17 05:32:00,
2013-09-17 01:34:00,47.3,40.1,30.41,WNW,290,1.0,2.0,76,0.00,,,0.00,0,Wunderground v.1.15,2013-09-17 05:34:00,
2013-09-17 01:37:00,47.1,39.9,30.41,NW,309,1.0,2.0,76,0.00,,,0.00,0,Wunderground v.1.15,2013-09-17 05:37:00,
2013-09-17 01:38:00,47.0,40.2,30.41,NW,309,1.0,2.0,77,0.00,,,0.00,0,Wunderground v.1.15,2013-09-17 05:38:00,
2013-09-17 01:40:00,46.8,39.6,30.41,NW,320,1.0,1.0,76,0.00,,,0.00,0,Wunderground v.1.15,2013-09-17 05:40:00,
2013-09-17 01:42:00,46.7,39.9,30.41,WSW,237,1.0,2.0,77,0.00,,,0.00,0,Wunderground v.1.15,2013-09-17 05:42:00,
2013-09-17 01:43:00,46.7,39.5,30.41,WSW,258,1.0,2.0,76,0.00,,,0.00,0,Wunderground v.1.15,2013-09-17 05:43:00,
2013-09-17 01:45:00,46.6,39.4,30.41,West,269,1.0,2.0,76,0.00,,,0.00,0,Wunderground v.1.15,2013-09-17 05:45:00,
2013-09-17 01:47:00,46.6,39.4,30.41,WNW,285,1.0,2.0,76,0.00,,,0.00,0,Wunderground v.1.15,2013-09-17 05:47:00,
2013-09-17 01:48:00,46.6,39.4,30.41,NE,46,1.0,2.0,76,0.00,,,0.00,0,Wunderground v.1.15,2013-09-17 05:48:00,
2013-09-17 01:52:00,46.7,39.2,30.41,North,10,1.0,1.0,75,0.00,,,0.00,0,Wunderground v.1.15,2013-09-17 05:52:00,
2013-09-17 01:53:00,46.7,39.2,30.41,North,10,1.0,1.0,75,0.00,,,0.00,0,Wunderground v.1.15,2013-09-17 05:53:00,
2013-09-17 01:54:00,46.7,39.2,30.41,North,10,1.0,1.0,75,0.00,,,0.00,0,Wunderground v.1.15,2013-09-17 05:54:00,
2013-09-17 01:55:00,46.7,39.2,30.41,North,10,1.0,1.0,75,0.00,,,0.00,0,Wunderground v.1.15,2013-09-17 05:55:00,
2013-09-17 01:59:00,46.8,39.3,30.41,North,10,1.0,1.0,75,0.00,,,0.00,0,Wunderground v.1.15,2013-09-17 05:59:00,
2013-09-17 02:00:00,46.8,39.3,30.41,North,10,1.0,1.0,75,0.00,,,0.00,0,Wunderground v.1.15,2013-09-17 06:00:00,
2013-09-17 02:03:00,46.8,39.3,30.41,North,10,0.0,1.0,75,0.00,,,0.00,0,Wunderground v.1.15,2013-09-17 06:03:00,
2013-09-17 02:04:00,46.8,39.3,30.41,North,10,0.0,1.0,75,0.00,,,0.00,0,Wunderground v.1.15,2013-09-17 06:04:00,
2013-09-17 02:07:00,46.8,38.9,30.41,SW,223,0.0,3.0,74,0.00,,,0.00,0,Wunderground v.1.15,2013-09-17 06:07:00,
2013-09-17 02:08:00,46.8,38.9,30.41,SSW,198,0.0,3.0,74,0.00,,,0.00,0,Wunderground v.1.15,2013-09-17 06:08:00,
2013-09-17 02:09:00,46.9,39.0,30.41,SSW,204,1.0,3.0,74,0.00,,,0.00,0,Wunderground v.1.15,2013-09-17 06:09:00,
2013-09-17 02:11:00,46.9,39.0,30.41,SSW,212,1.0,2.0,74,0.00,,,0.00,0,Wunderground v.1.15,2013-09-17 06:11:00,
2013-09-17 02:12:00,47.0,39.1,30.41,SW,217,1.0,2.0,74,0.00,,,0.00,0,Wunderground v.1.15,2013-09-17 06:12:00,
2013-09-17 02:13:00,47.0,39.1,30.41,SW,217,1.0,2.0,74,0.00,,,0.00,0,Wunderground v.1.15,2013-09-17 06:13:00,
2013-09-17 02:17:00,46.9,39.4,30.41,NW,321,1.0,2.0,75,0.00,,,0.00,0,Wunderground v.1.15,2013-09-17 06:17:00,
2013-09-17 02:18:00,46.9,39.4,30.41,NW,315,1.0,2.0,75,0.00,,,0.00,0,Wunderground v.1.15,2013-09-17 06:18:00,
2013-09-17 02:20:00,46.8,39.6,30.41,NW,315,1.0,1.0,76,0.00,,,0.00,0,Wunderground v.1.15,2013-09-17 06:20:00,
2013-09-17 02:23:00,46.5,39.3,30.41,NW,315,1.0,1.0,76,0.00,,,0.00,0,Wunderground v.1.15,2013-09-17 06:23:00,
2013-09-17 02:27:00,46.1,39.3,30.41,NW,315,1.0,1.0,77,0.00,,,0.00,0,Wunderground v.1.15,2013-09-17 06:27:00,
2013-09-17 02:29:00,46.0,39.2,30.41,NW,319,1.0,2.0,77,0.00,,,0.00,0,Wunderground v.1.15,2013-09-17 06:29:00,
2013-09-17 02:30:00,45.9,39.4,30.41,NW,319,1.0,1.0,78,0.00,,,0.00,0,Wunderground v.1.15,2013-09-17 06:30:00,
2013-09-17 02:33:00,45.8,39.3,30.41,NW,306,1.0,2.0,78,0.00,,,0.00,0,Wunderground v.1.15,2013-09-17 06:33:00,
2013-09-17 02:36:00,45.7,39.2,30.41,NW,319,1.0,2.0,78,0.00,,,0.00,0,Wunderground v.1.15,2013-09-17 06:36:00,
2013-09-17 02:37:00,45.7,39.2,30.41,NW,306,1.0,2.0,78,0.00,,,0.00,0,Wunderground v.1.15,2013-09-17 06:37:00,
2013-09-17 02:39:00,45.7,39.2,30.41,NW,308,1.0,3.0,78,0.00,,,0.00,0,Wunderground v.1.15,2013-09-17 06:39:00,
2013-09-17 02:41:00,45.8,39.3,30.41,WNW,303,1.0,1.0,78,0.00,,,0.00,0,Wunderground v.1.15,2013-09-17 06:41:00,
2013-09-17 02:43:00,45.8,39.0,30.41,NW,322,1.0,4.0,77,0.00,,,0.00,0,Wunderground v.1.15,2013-09-17 06:43:00,
2013-09-17 02:45:00,45.8,39.0,30.41,NW,314,1.0,4.0,77,0.00,,,0.00,0,Wunderground v.1.15,2013-09-17 06:45:00,
2013-09-17 02:46:00,45.8,39.0,30.41,NW,314,1.0,4.0,77,0.00,,,0.00,0,Wunderground v.1.15,2013-09-17 06:46:00,
2013-09-17 02:47:00,45.8,39.0,30.42,NW,314,1.0,4.0,77,0.00,,,0.00,0,Wunderground v.1.15,2013-09-17 06:47:00,
2013-09-17 02:49:00,45.8,39.3,30.41,NW,309,1.0,4.0,78,0.00,,,0.00,0,Wunderground v.1.15,2013-09-17 06:49:00,
2013-09-17 02:50:00,45.8,39.0,30.42,SW,236,1.0,1.0,77,0.00,,,0.00,0,Wunderground v.1.15,2013-09-17 06:50:00,
2013-09-17 02:52:00,45.8,39.0,30.42,SW,236,1.0,1.0,77,0.00,,,0.00,0,Wunderground v.1.15,2013-09-17 06:52:00,
2013-09-17 02:53:00,45.8,39.0,30.42,SW,236,1.0,1.0,77,0.00,,,0.00,0,Wunderground v.1.15,2013-09-17 06:53:00,
2013-09-17 02:54:00,45.8,39.0,30.42,SW,236,1.0,1.0,77,0.00,,,0.00,0,Wunderground v.1.15,2013-09-17 06:54:00,
2013-09-17 02:56:00,45.8,39.0,30.42,SW,236,1.0,1.0,77,0.00,,,0.00,0,Wunderground v.1.15,2013-09-17 06:56:00,
2013-09-17 02:57:00,45.8,39.0,30.42,SW,236,1.0,1.0,77,0.00,,,0.00,0,Wunderground v.1.15,2013-09-17 06:57:00,
2013-09-17 02:58:00,45.8,39.0,30.42,SW,236,1.0,1.0,77,0.00,,,0.00,0,Wunderground v.1.15,2013-09-17 06:58:00,
2013-09-17 02:59:00,45.8,39.3,30.42,SW,236,1.0,1.0,78,0.00,,,0.00,0,Wunderground v.1.15,2013-09-17 06:59:00,
2013-09-17 03:01:00,45.8,39.3,30.42,SW,236,1.0,1.0,78,0.00,,,0.00,0,Wunderground v.1.15,2013-09-17 07:01:00,
2013-09-17 03:02:00,45.8,39.3,30.42,SW,236,1.0,1.0,78,0.00,,,0.00,0,Wunderground v.1.15,2013-09-17 07:02:00,
2013-09-17 03:06:00,45.7,39.2,30.42,SW,236,0.0,1.0,78,0.00,,,0.00,0,Wunderground v.1.15,2013-09-17 07:06:00,
2013-09-17 03:08:00,45.6,39.1,30.42,SW,236,0.0,1.0,78,0.00,,,0.00,0,Wunderground v.1.15,2013-09-17 07:08:00,
2013-09-17 03:09:00,45.6,39.1,30.42,SW,236,0.0,1.0,78,0.00,,,0.00,0,Wunderground v.1.15,2013-09-17 07:09:00,
2013-09-17 03:14:00,45.4,39.3,30.42,NNW,335,1.0,2.0,79,0.00,,,0.00,0,Wunderground v.1.15,2013-09-17 07:14:00,
2013-09-17 03:15:00,45.3,39.5,30.43,NNW,334,1.0,2.0,80,0.00,,,0.00,0,Wunderground v.1.15,2013-09-17 07:15:00,
2013-09-17 03:16:00,45.3,39.5,30.43,NNW,335,1.0,2.0,80,0.00,,,0.00,0,Wunderground v.1.15,2013-09-17 07:16:00,
2013-09-17 03:19:00,45.1,39.3,30.43,NW,319,1.0,2.0,80,0.00,,,0.00,0,Wunderground v.1.15,2013-09-17 07:19:00,
2013-09-17 03:20:00,45.0,39.2,30.43,NW,319,1.0,1.0,80,0.00,,,0.00,0,Wunderground v.1.15,2013-09-17 07:20:00,
2013-09-17 03:22:00,44.9,39.4,30.43,NW,319,1.0,2.0,81,0.00,,,0.00,0,Wunderground v.1.15,2013-09-17 07:22:00,
2013-09-17 03:23:00,44.8,39.3,30.43,NW,319,1.0,2.0,81,0.00,,,0.00,0,Wunderground v.1.15,2013-09-17 07:23:00,
2013-09-17 03:24:00,44.7,39.2,30.43,NW,319,1.0,2.0,81,0.00,,,0.00,0,Wunderground v.1.15,2013-09-17 07:24:00,
2013-09-17 03:25:00,44.7,39.2,30.43,NW,319,1.0,2.0,81,0.00,,,0.00,0,Wunderground v.1.15,2013-09-17 07:25:00,
2013-09-17 03:28:00,44.6,39.4,30.43,NW,314,1.0,2.0,82,0.00,,,0.00,0,Wunderground v.1.15,2013-09-17 07:28:00,
2013-09-17 03:30:00,44.5,39.0,30.43,NW,313,1.0,2.0,81,0.00,,,0.00,0,Wunderground v.1.15,2013-09-17 07:30:00,
2013-09-17 03:31:00,44.5,39.3,30.43,NW,313,1.0,2.0,82,0.00,,,0.00,0,Wunderground v.1.15,2013-09-17 07:31:00,
2013-09-17 03:33:00,44.4,39.2,30.43,NW,312,1.0,2.0,82,0.00,,,0.00,0,Wunderground v.1.15,2013-09-17 07:33:00,
2013-09-17 03:37:00,44.4,39.2,30.43,NW,308,1.0,2.0,82,0.00,,,0.00,0,Wunderground v.1.15,2013-09-17 07:37:00,
2013-09-17 03:38:00,44.4,39.2,30.43,NW,308,1.0,2.0,82,0.00,,,0.00,0,Wunderground v.1.15,2013-09-17 07:38:00,
2013-09-17 03:39:00,44.3,39.2,30.43,NW,308,1.0,2.0,82,0.00,,,0.00,0,Wunderground v.1.15,2013-09-17 07:39:00,
2013-09-17 03:44:00,44.3,39.2,30.43,NW,308,1.0,1.0,82,0.00,,,0.00,0,Wunderground v.1.15,2013-09-17 07:44:00,
2013-09-17 03:45:00,44.3,39.2,30.43,NW,308,1.0,1.0,82,0.00,,,0.00,0,Wunderground v.1.15,2013-09-17 07:45:00,
2013-09-17 03:46:00,44.3,39.2,30.43,NW,308,1.0,1.0,82,0.00,,,0.00,0,Wunderground v.1.15,2013-09-17 07:46:00,
2013-09-17 03:48:00,44.3,39.2,30.43,WSW,239,0.0,1.0,82,0.00,,,0.00,0,Wunderground v.1.15,2013-09-17 07:48:00,
2013-09-17 03:49:00,44.3,39.2,30.43,South,175,1.0,1.0,82,0.00,,,0.00,0,Wunderground v.1.15,2013-09-17 07:49:00,
2013-09-17 03:50:00,44.3,39.5,30.43,South,175,1.0,1.0,83,0.00,,,0.00,0,Wunderground v.1.15,2013-09-17 07:50:00,
2013-09-17 03:54:00,44.1,39.6,30.43,South,175,1.0,1.0,84,0.00,,,0.00,0,Wunderground v.1.15,2013-09-17 07:54:00,
2013-09-17 03:55:00,44.1,39.6,30.43,South,175,1.0,1.0,84,0.00,,,0.00,0,Wunderground v.1.15,2013-09-17 07:55:00,
2013-09-17 03:56:00,44.1,39.6,30.44,South,175,1.0,1.0,84,0.00,,,0.00,0,Wunderground v.1.15,2013-09-17 07:56:00,
2013-09-17 03:58:00,44.0,39.5,30.44,South,171,1.0,1.0,84,0.00,,,0.00,0,Wunderground v.1.15,2013-09-17 07:58:00,
2013-09-17 04:00:00,44.0,39.5,30.44,South,171,0.0,0.0,84,0.00,,,0.00,0,Wunderground v.1.15,2013-09-17 08:00:00,
2013-09-17 04:04:00,44.0,39.5,30.43,South,171,0.0,0.0,84,0.00,,,0.00,0,Wunderground v.1.15,2013-09-17 08:04:00,
2013-09-17 04:06:00,43.9,39.7,30.43,South,171,0.0,0.0,85,0.00,,,0.00,0,Wunderground v.1.15,2013-09-17 08:06:00,
2013-09-17 04:09:00,43.8,39.6,30.43,WNW,294,0.0,0.0,85,0.00,,,0.00,0,Wunderground v.1.15,2013-09-17 08:09:00,
2013-09-17 04:13:00,43.7,39.5,30.43,NW,323,0.0,0.0,85,0.00,,,0.00,0,Wunderground v.1.15,2013-09-17 08:13:00,
2013-09-17 04:14:00,43.6,39.4,30.43,NW,323,0.0,1.0,85,0.00,,,0.00,0,Wunderground v.1.15,2013-09-17 08:14:00,
2013-09-17 04:17:00,43.5,39.3,30.43,NW,323,0.0,1.0,85,0.00,,,0.00,0,Wunderground v.1.15,2013-09-17 08:17:00,
2013-09-17 04:19:00,43.5,39.3,30.43,NW,323,1.0,1.0,85,0.00,,,0.00,0,Wunderground v.1.15,2013-09-17 08:19:00,
2013-09-17 04:20:00,43.5,39.3,30.43,NW,323,1.0,1.0,85,0.00,,,0.00,0,Wunderground v.1.15,2013-09-17 08:20:00,
2013-09-17 04:23:00,43.4,39.2,30.44,NW,323,1.0,1.0,85,0.00,,,0.00,0,Wunderground v.1.15,2013-09-17 08:23:00,
2013-09-17 04:24:00,43.4,39.2,30.44,NW,323,1.0,1.0,85,0.00,,,0.00,0,Wunderground v.1.15,2013-09-17 08:24:00,
2013-09-17 04:25:00,43.5,39.3,30.44,NW,323,1.0,1.0,85,0.00,,,0.00,0,Wunderground v.1.15,2013-09-17 08:25:00,
2013-09-17 04:28:00,43.4,39.2,30.44,NW,323,1.0,1.0,85,0.00,,,0.00,0,Wunderground v.1.15,2013-09-17 08:28:00,
2013-09-17 04:29:00,43.3,39.1,30.44,NW,323,1.0,2.0,85,0.00,,,0.00,0,Wunderground v.1.15,2013-09-17 08:29:00,
2013-09-17 04:30:00,43.2,39.0,30.44,NW,323,1.0,1.0,85,0.00,,,0.00,0,Wunderground v.1.15,2013-09-17 08:30:00,
2013-09-17 04:31:00,43.2,39.0,30.44,NW,323,1.0,1.0,85,0.00,,,0.00,0,Wunderground v.1.15,2013-09-17 08:31:00,
2013-09-17 04:34:00,43.2,39.0,30.44,NW,323,1.0,1.0,85,0.00,,,0.00,0,Wunderground v.1.15,2013-09-17 08:34:00,
2013-09-17 04:35:00,43.2,39.3,30.44,NW,323,1.0,2.0,86,0.00,,,0.00,0,Wunderground v.1.15,2013-09-17 08:35:00,
2013-09-17 04:37:00,43.2,39.0,30.44,NW,323,1.0,2.0,85,0.00,,,0.00,0,Wunderground v.1.15,2013-09-17 08:37:00,
2013-09-17 04:38:00,43.2,39.0,30.44,NW,323,1.0,2.0,85,0.00,,,0.00,0,Wunderground v.1.15,2013-09-17 08:38:00,
2013-09-17 04:41:00,43.3,39.1,30.44,NW,323,1.0,1.0,85,0.00,,,0.00,0,Wunderground v.1.15,2013-09-17 08:41:00,
2013-09-17 04:42:00,43.3,39.1,30.44,NW,323,1.0,1.0,85,0.00,,,0.00,0,Wunderground v.1.15,2013-09-17 08:42:00,
2013-09-17 04:43:00,43.3,39.1,30.44,South,179,1.0,1.0,85,0.00,,,0.00,0,Wunderground v.1.15,2013-09-17 08:43:00,
2013-09-17 04:44:00,43.2,39.0,30.44,SSE,167,1.0,2.0,85,0.00,,,0.00,0,Wunderground v.1.15,2013-09-17 08:44:00,
2013-09-17 04:46:00,43.1,39.2,30.44,SSE,167,1.0,2.0,86,0.00,,,0.00,0,Wunderground v.1.15,2013-09-17 08:46:00,
2013-09-17 04:49:00,42.9,39.0,30.44,SSE,167,1.0,2.0,86,0.00,,,0.00,0,Wunderground v.1.15,2013-09-17 08:49:00,
2013-09-17 04:50:00,42.8,38.9,30.44,SSE,167,1.0,2.0,86,0.00,,,0.00,0,Wunderground v.1.15,2013-09-17 08:50:00,
2013-09-17 04:53:00,42.6,39.0,30.44,SSE,167,1.0,2.0,87,0.00,,,0.00,0,Wunderground v.1.15,2013-09-17 08:53:00,
2013-09-17 04:55:00,42.6,39.3,30.44,SSE,167,1.0,2.0,88,0.00,,,0.00,0,Wunderground v.1.15,2013-09-17 08:55:00,
2013-09-17 04:56:00,42.6,39.3,30.44,SSE,167,1.0,2.0,88,0.00,,,0.00,0,Wunderground v.1.15,2013-09-17 08:56:00,
2013-09-17 04:57:00,42.6,39.3,30.44,SSE,167,1.0,2.0,88,0.00,,,0.00,0,Wunderground v.1.15,2013-09-17 08:57:00,
2013-09-17 04:58:00,42.6,39.3,30.44,SSE,167,1.0,2.0,88,0.00,,,0.00,0,Wunderground v.1.15,2013-09-17 08:58:00,
2013-09-17 05:00:00,42.6,39.3,30.44,SSE,167,0.0,0.0,88,0.00,,,0.00,0,Wunderground v.1.15,2013-09-17 09:00:00,
2013-09-17 05:02:00,42.6,39.3,30.44,SSE,167,0.0,1.0,88,0.00,,,0.00,0,Wunderground v.1.15,2013-09-17 09:02:00,
2013-09-17 05:05:00,42.7,39.7,30.44,South,169,0.0,2.0,89,0.00,,,0.00,0,Wunderground v.1.15,2013-09-17 09:05:00,
2013-09-17 05:06:00,42.8,39.8,30.44,South,169,0.0,2.0,89,0.00,,,0.00,0,Wunderground v.1.15,2013-09-17 09:06:00,
2013-09-17 05:10:00,42.8,39.5,30.45,South,169,1.0,1.0,88,0.00,,,0.00,0,Wunderground v.1.15,2013-09-17 09:10:00,
2013-09-17 05:11:00,42.8,39.5,30.45,South,169,1.0,1.0,88,0.00,,,0.00,0,Wunderground v.1.15,2013-09-17 09:11:00,
2013-09-17 05:14:00,42.7,39.4,30.45,South,169,0.0,1.0,88,0.00,,,0.00,0,Wunderground v.1.15,2013-09-17 09:14:00,
2013-09-17 05:15:00,42.6,39.0,30.45,South,169,0.0,1.0,87,0.00,,,0.00,0,Wunderground v.1.15,2013-09-17 09:15:00,
2013-09-17 05:16:00,42.5,38.9,30.45,South,169,0.0,1.0,87,0.00,,,0.00,0,Wunderground v.1.15,2013-09-17 09:16:00,
2013-09-17 05:20:00,42.3,38.7,30.45,South,169,0.0,0.0,87,0.00,,,0.00,0,Wunderground v.1.15,2013-09-17 09:20:00,
2013-09-17 05:21:00,42.2,38.6,30.45,South,169,0.0,0.0,87,0.00,,,0.00,0,Wunderground v.1.15,2013-09-17 09:21:00,
2013-09-17 05:25:00,42.1,38.8,30.45,South,169,0.0,0.0,88,0.00,,,0.00,0,Wunderground v.1.15,2013-09-17 09:25:00,
2013-09-17 05:27:00,42.0,38.7,30.45,South,169,0.0,0.0,88,0.00,,,0.00,0,Wunderground v.1.15,2013-09-17 09:27:00,
2013-09-17 05:28:00,42.0,38.7,30.45,South,169,0.0,1.0,88,0.00,,,0.00,0,Wunderground v.1.15,2013-09-17 09:28:00,
2013-09-17 05:29:00,42.0,38.7,30.45,South,169,0.0,2.0,88,0.00,,,0.00,0,Wunderground v.1.15,2013-09-17 09:29:00,
2013-09-17 05:33:00,42.0,39.0,30.45,SW,226,1.0,1.0,89,0.00,,,0.00,0,Wunderground v.1.15,2013-09-17 09:33:00,
2013-09-17 05:34:00,41.9,38.9,30.45,WSW,240,1.0,2.0,89,0.00,,,0.00,0,Wunderground v.1.15,2013-09-17 09:34:00,
2013-09-17 05:35:00,41.9,38.9,30.45,WNW,283,1.0,2.0,89,0.00,,,0.00,0,Wunderground v.1.15,2013-09-17 09:35:00,
2013-09-17 05:36:00,41.9,38.9,30.45,NNW,331,1.0,2.0,89,0.00,,,0.00,0,Wunderground v.1.15,2013-09-17 09:36:00,
2013-09-17 05:37:00,41.9,38.9,30.45,NNW,331,1.0,2.0,89,0.00,,,0.00,0,Wunderground v.1.15,2013-09-17 09:37:00,
2013-09-17 05:40:00,41.9,38.9,30.45,NNW,331,1.0,1.0,89,0.00,,,0.00,0,Wunderground v.1.15,2013-09-17 09:40:00,
2013-09-17 05:43:00,41.8,38.8,30.45,NNW,331,1.0,1.0,89,0.00,,,0.00,0,Wunderground v.1.15,2013-09-17 09:43:00,
2013-09-17 05:44:00,41.8,38.8,30.45,NNW,331,1.0,1.0,89,0.00,,,0.00,0,Wunderground v.1.15,2013-09-17 09:44:00,
2013-09-17 05:47:00,41.7,38.7,30.45,NNW,331,0.0,1.0,89,0.00,,,0.00,0,Wunderground v.1.15,2013-09-17 09:47:00,
2013-09-17 05:49:00,41.7,38.7,30.45,NNW,331,0.0,1.0,89,0.00,,,0.00,0,Wunderground v.1.15,2013-09-17 09:49:00,
2013-09-17 05:52:00,41.6,38.6,30.45,NNW,331,0.0,1.0,89,0.00,,,0.00,0,Wunderground v.1.15,2013-09-17 09:52:00,
2013-09-17 05:55:00,41.5,38.8,30.45,NW,323,0.0,2.0,90,0.00,,,0.00,0,Wunderground v.1.15,2013-09-17 09:55:00,
2013-09-17 05:56:00,41.5,38.8,30.45,NW,323,0.0,2.0,90,0.00,,,0.00,0,Wunderground v.1.15,2013-09-17 09:56:00,
2013-09-17 05:58:00,41.5,38.8,30.46,NW,323,0.0,2.0,90,0.00,,,0.00,0,Wunderground v.1.15,2013-09-17 09:58:00,
2013-09-17 06:00:00,41.5,38.8,30.46,NW,323,1.0,1.0,90,0.00,,,0.00,0,Wunderground v.1.15,2013-09-17 10:00:00,
2013-09-17 06:01:00,41.5,38.8,30.46,NW,323,1.0,1.0,90,0.00,,,0.00,0,Wunderground v.1.15,2013-09-17 10:01:00,
2013-09-17 06:07:00,41.5,38.8,30.46,NNW,333,0.0,2.0,90,0.00,,,0.00,0,Wunderground v.1.15,2013-09-17 10:07:00,
2013-09-17 06:08:00,41.5,38.8,30.46,NNW,333,1.0,2.0,90,0.00,,,0.00,0,Wunderground v.1.15,2013-09-17 10:08:00,
2013-09-17 06:12:00,41.5,38.5,30.46,NW,324,1.0,2.0,89,0.00,,,0.00,0,Wunderground v.1.15,2013-09-17 10:12:00,
2013-09-17 06:13:00,41.5,38.5,30.46,NW,325,1.0,2.0,89,0.00,,,0.00,0,Wunderground v.1.15,2013-09-17 10:13:00,
2013-09-17 06:14:00,41.5,38.5,30.46,NW,325,1.0,2.0,89,0.00,,,0.00,0,Wunderground v.1.15,2013-09-17 10:14:00,
2013-09-17 06:15:00,41.5,38.5,30.46,NW,325,1.0,2.0,89,0.00,,,0.00,0,Wunderground v.1.15,2013-09-17 10:15:00,
2013-09-17 06:16:00,41.5,38.5,30.46,NW,325,1.0,2.0,89,0.00,,,0.00,0,Wunderground v.1.15,2013-09-17 10:16:00,
2013-09-17 06:19:00,41.5,38.5,30.46,NW,325,1.0,2.0,89,0.00,,,0.00,0,Wunderground v.1.15,2013-09-17 10:19:00,
2013-09-17 06:20:00,41.5,38.5,30.46,NW,325,1.0,1.0,89,0.00,,,0.00,0,Wunderground v.1.15,2013-09-17 10:20:00,
2013-09-17 06:21:00,41.5,38.5,30.46,NW,325,1.0,1.0,89,0.00,,,0.00,0,Wunderground v.1.15,2013-09-17 10:21:00,
2013-09-17 06:25:00,41.4,38.4,30.46,NW,325,1.0,1.0,89,0.00,,,0.00,0,Wunderground v.1.15,2013-09-17 10:25:00,
2013-09-17 06:26:00,41.4,38.4,30.46,NW,325,1.0,1.0,89,0.00,,,0.00,0,Wunderground v.1.15,2013-09-17 10:26:00,
2013-09-17 06:28:00,41.3,38.3,30.46,NW,325,1.0,1.0,89,0.00,,,0.00,0,Wunderground v.1.15,2013-09-17 10:28:00,
2013-09-17 06:31:00,41.2,38.2,30.47,NW,325,1.0,1.0,89,0.00,,,0.00,0,Wunderground v.1.15,2013-09-17 10:31:00,
2013-09-17 06:32:00,41.2,38.2,30.47,NW,325,1.0,1.0,89,0.00,,,0.00,0,Wunderground v.1.15,2013-09-17 10:32:00,
2013-09-17 06:33:00,41.3,38.3,30.47,NW,325,1.0,1.0,89,0.00,,,0.00,0,Wunderground v.1.15,2013-09-17 10:33:00,
2013-09-17 06:36:00,41.2,38.5,30.47,South,178,1.0,2.0,90,0.00,,,0.00,0,Wunderground v.1.15,2013-09-17 10:36:00,
2013-09-17 06:38:00,41.2,38.5,30.48,South,178,1.0,2.0,90,0.00,,,0.00,0,Wunderground v.1.15,2013-09-17 10:38:00,
2013-09-17 06:41:00,41.1,38.4,30.48,South,178,1.0,1.0,90,0.00,,,0.00,0,Wunderground v.1.15,2013-09-17 10:41:00,
2013-09-17 06:45:00,41.0,38.3,30.48,South,178,1.0,1.0,90,0.00,,,0.00,0,Wunderground v.1.15,2013-09-17 10:45:00,
2013-09-17 06:46:00,41.0,38.3,30.48,South,178,0.0,1.0,90,0.00,,,0.00,0,Wunderground v.1.15,2013-09-17 10:46:00,
2013-09-17 06:47:00,41.0,38.3,30.48,South,178,0.0,1.0,90,0.00,,,0.00,0,Wunderground v.1.15,2013-09-17 10:47:00,
2013-09-17 06:49:00,40.9,38.2,30.48,South,178,0.0,1.0,90,0.00,,,0.00,5,Wunderground v.1.15,2013-09-17 10:49:00,
2013-09-17 06:53:00,40.8,38.1,30.49,South,178,0.0,1.0,90,0.00,,,0.00,5,Wunderground v.1.15,2013-09-17 10:53:00,
2013-09-17 06:54:00,40.9,38.2,30.49,South,178,0.0,1.0,90,0.00,,,0.00,5,Wunderground v.1.15,2013-09-17 10:54:00,
2013-09-17 06:55:00,40.8,38.1,30.49,South,178,0.0,1.0,90,0.00,,,0.00,7,Wunderground v.1.15,2013-09-17 10:55:00,
2013-09-17 06:57:00,40.7,38.0,30.48,South,178,0.0,1.0,90,0.00,,,0.00,7,Wunderground v.1.15,2013-09-17 10:57:00,
2013-09-17 06:59:00,40.7,38.0,30.48,WSW,257,0.0,1.0,90,0.00,,,0.00,7,Wunderground v.1.15,2013-09-17 10:59:00,
2013-09-17 07:00:00,40.7,38.0,30.49,WNW,294,0.0,2.0,90,0.00,,,0.00,9,Wunderground v.1.15,2013-09-17 11:00:00,
2013-09-17 07:03:00,40.7,38.0,30.49,NW,316,1.0,2.0,90,0.00,,,0.00,9,Wunderground v.1.15,2013-09-17 11:03:00,
2013-09-17 07:04:00,40.7,38.0,30.49,NW,315,1.0,2.0,90,0.00,,,0.00,9,Wunderground v.1.15,2013-09-17 11:04:00,
2013-09-17 07:06:00,40.7,38.0,30.49,NW,311,1.0,4.0,90,0.00,,,0.00,11,Wunderground v.1.15,2013-09-17 11:06:00,
2013-09-17 07:08:00,40.7,38.3,30.48,NW,321,2.0,4.0,91,0.00,,,0.00,11,Wunderground v.1.15,2013-09-17 11:08:00,
2013-09-17 07:11:00,40.7,38.3,30.49,SSE,147,2.0,5.0,91,0.00,,,0.00,11,Wunderground v.1.15,2013-09-17 11:11:00,
2013-09-17 07:12:00,40.7,38.0,30.49,SSE,148,2.0,5.0,90,0.00,,,0.00,12,Wunderground v.1.15,2013-09-17 11:12:00,
2013-09-17 07:13:00,40.6,37.9,30.49,SSE,155,2.0,5.0,90,0.00,,,0.00,12,Wunderground v.1.15,2013-09-17 11:13:00,
2013-09-17 07:14:00,40.5,37.8,30.49,SE,124,3.0,5.0,90,0.00,,,0.00,14,Wunderground v.1.15,2013-09-17 11:14:00,
2013-09-17 07:15:00,40.5,37.8,30.49,SSE,161,3.0,5.0,90,0.00,,,0.00,14,Wunderground v.1.15,2013-09-17 11:15:00,
2013-09-17 07:19:00,40.2,37.5,30.49,South,188,2.0,5.0,90,0.00,,,0.00,16,Wunderground v.1.15,2013-09-17 11:19:00,
2013-09-17 07:22:00,40.2,37.8,30.49,South,188,1.0,2.0,91,0.00,,,0.00,16,Wunderground v.1.15,2013-09-17 11:22:00,
2013-09-17 07:23:00,40.2,37.8,30.49,South,188,1.0,2.0,91,0.00,,,0.00,16,Wunderground v.1.15,2013-09-17 11:23:00,
2013-09-17 07:24:00,40.2,37.8,30.49,South,188,1.0,2.0,91,0.00,,,0.00,16,Wunderground v.1.15,2013-09-17 11:24:00,
2013-09-17 07:26:00,40.1,37.7,30.49,South,188,0.0,2.0,91,0.00,,,0.00,18,Wunderground v.1.15,2013-09-17 11:26:00,
2013-09-17 07:27:00,40.1,37.7,30.50,WSW,252,0.0,2.0,91,0.00,,,0.00,18,Wunderground v.1.15,2013-09-17 11:27:00,
2013-09-17 07:30:00,40.1,37.7,30.50,WSW,252,0.0,0.0,91,0.00,,,0.00,19,Wunderground v.1.15,2013-09-17 11:30:00,
2013-09-17 07:31:00,40.0,37.6,30.50,WSW,252,0.0,0.0,91,0.00,,,0.00,21,Wunderground v.1.15,2013-09-17 11:31:00,
2013-09-17 07:33:00,40.1,37.7,30.50,WSW,252,0.0,0.0,91,0.00,,,0.00,21,Wunderground v.1.15,2013-09-17 11:33:00,
2013-09-17 07:34:00,40.1,37.7,30.50,WSW,252,0.0,0.0,91,0.00,,,0.00,21,Wunderground v.1.15,2013-09-17 11:34:00,
2013-09-17 07:38:00,40.1,37.7,30.50,WSW,252,0.0,0.0,91,0.00,,,0.00,23,Wunderground v.1.15,2013-09-17 11:38:00,
2013-09-17 07:40:00,40.2,38.1,30.50,SSE,158,0.0,0.0,92,0.00,,,0.00,23,Wunderground v.1.15,2013-09-17 11:40:00,
2013-09-17 07:42:00,40.3,37.9,30.50,West,260,0.0,2.0,91,0.00,,,0.00,23,Wunderground v.1.15,2013-09-17 11:42:00,
2013-09-17 07:43:00,40.3,37.9,30.50,West,260,0.0,2.0,91,0.00,,,0.00,23,Wunderground v.1.15,2013-09-17 11:43:00,
2013-09-17 07:44:00,40.4,38.0,30.50,West,260,0.0,2.0,91,0.00,,,0.00,23,Wunderground v.1.15,2013-09-17 11:44:00,
2013-09-17 07:46:00,40.4,38.0,30.51,West,260,0.0,2.0,91,0.00,,,0.00,25,Wunderground v.1.15,2013-09-17 11:46:00,
2013-09-17 07:48:00,40.5,38.1,30.50,West,260,0.0,2.0,91,0.00,,,0.00,25,Wunderground v.1.15,2013-09-17 11:48:00,
2013-09-17 07:49:00,40.5,38.1,30.50,West,260,0.0,2.0,91,0.00,,,0.00,25,Wunderground v.1.15,2013-09-17 11:49:00,
2013-09-17 07:52:00,40.7,38.3,30.51,West,265,1.0,1.0,91,0.00,,,0.00,26,Wunderground v.1.15,2013-09-17 11:52:00,
2013-09-17 07:53:00,40.8,38.4,30.51,West,265,1.0,1.0,91,0.00,,,0.00,26,Wunderground v.1.15,2013-09-17 11:53:00,
2013-09-17 07:54:00,40.8,38.4,30.51,West,265,0.0,1.0,91,0.00,,,0.00,26,Wunderground v.1.15,2013-09-17 11:54:00,
2013-09-17 07:55:00,40.9,38.5,30.50,West,259,0.0,1.0,91,0.00,,,0.00,26,Wunderground v.1.15,2013-09-17 11:55:00,
2013-09-17 07:57:00,41.0,38.6,30.51,SE,146,1.0,2.0,91,0.00,,,0.00,47,Wunderground v.1.15,2013-09-17 11:57:00,
2013-09-17 07:59:00,41.1,38.7,30.51,SE,146,1.0,2.0,91,0.00,,,0.00,30,Wunderground v.1.15,2013-09-17 11:59:00,
2013-09-17 08:01:00,41.2,38.8,30.51,SE,146,0.0,2.0,91,0.00,,,0.00,30,Wunderground v.1.15,2013-09-17 12:01:00,
2013-09-17 08:02:00,41.3,38.9,30.51,SE,146,1.0,2.0,91,0.00,,,0.00,28,Wunderground v.1.15,2013-09-17 12:02:00,
2013-09-17 08:06:00,41.5,39.1,30.51,SE,146,1.0,2.0,91,0.00,,,0.00,37,Wunderground v.1.15,2013-09-17 12:06:00,
2013-09-17 08:08:00,41.6,38.9,30.51,SE,146,0.0,2.0,90,0.00,,,0.00,51,Wunderground v.1.15,2013-09-17 12:08:00,
2013-09-17 08:09:00,41.6,38.9,30.51,SE,146,0.0,2.0,90,0.00,,,0.00,53,Wunderground v.1.15,2013-09-17 12:09:00,
2013-09-17 08:14:00,41.9,39.2,30.51,SE,146,1.0,2.0,90,0.00,,,0.00,40,Wunderground v.1.15,2013-09-17 12:14:00,
2013-09-17 08:15:00,42.0,39.3,30.51,SE,146,1.0,2.0,90,0.00,,,0.00,35,Wunderground v.1.15,2013-09-17 12:15:00,
2013-09-17 08:16:00,42.0,39.3,30.51,SE,146,1.0,2.0,90,0.00,,,0.00,40,Wunderground v.1.15,2013-09-17 12:16:00,
2013-09-17 08:18:00,42.2,39.5,30.51,SE,146,1.0,2.0,90,0.00,,,0.00,62,Wunderground v.1.15,2013-09-17 12:18:00,
2013-09-17 08:20:00,42.3,39.6,30.51,SE,146,1.0,2.0,90,0.00,,,0.00,81,Wunderground v.1.15,2013-09-17 12:20:00,
2013-09-17 08:21:00,42.3,39.3,30.51,SE,146,1.0,2.0,89,0.00,,,0.00,86,Wunderground v.1.15,2013-09-17 12:21:00,
2013-09-17 08:24:00,42.6,39.6,30.52,SE,146,0.0,2.0,89,0.00,,,0.00,49,Wunderground v.1.15,2013-09-17 12:24:00,
2013-09-17 08:27:00,42.9,39.6,30.51,SE,146,1.0,2.0,88,0.00,,,0.00,37,Wunderground v.1.15,2013-09-17 12:27:00,
2013-09-17 08:28:00,42.9,39.6,30.52,SE,146,1.0,2.0,88,0.00,,,0.00,37,Wunderground v.1.15,2013-09-17 12:28:00,
2013-09-17 08:29:00,43.0,39.7,30.52,South,177,1.0,2.0,88,0.00,,,0.00,37,Wunderground v.1.15,2013-09-17 12:29:00,
2013-09-17 08:30:00,43.1,39.8,30.52,South,177,1.0,1.0,88,0.00,,,0.00,37,Wunderground v.1.15,2013-09-17 12:30:00,
2013-09-17 08:36:00,43.5,39.9,30.52,SSE,150,1.0,2.0,87,0.00,,,0.00,37,Wunderground v.1.15,2013-09-17 12:36:00,
2013-09-17 08:37:00,43.6,40.0,30.52,SE,131,1.0,2.0,87,0.00,,,0.00,37,Wunderground v.1.15,2013-09-17 12:37:00,
2013-09-17 08:38:00,43.6,40.0,30.52,SE,132,1.0,2.0,87,0.00,,,0.00,37,Wunderground v.1.15,2013-09-17 12:38:00,
2013-09-17 08:39:00,43.8,40.2,30.52,SSE,153,1.0,2.0,87,0.00,,,0.00,37,Wunderground v.1.15,2013-09-17 12:39:00,
2013-09-17 08:41:00,44.0,40.4,30.52,SSE,158,1.0,1.0,87,0.00,,,0.00,37,Wunderground v.1.15,2013-09-17 12:41:00,
2013-09-17 08:42:00,44.1,40.5,30.52,South,190,1.0,2.0,87,0.00,,,0.00,37,Wunderground v.1.15,2013-09-17 12:42:00,
2013-09-17 08:44:00,44.3,40.7,30.52,North,5,1.0,2.0,87,0.00,,,0.00,37,Wunderground v.1.15,2013-09-17 12:44:00,
2013-09-17 08:45:00,44.4,40.5,30.52,NNE,22,1.0,3.0,86,0.00,,,0.00,37,Wunderground v.1.15,2013-09-17 12:45:00,
2013-09-17 08:48:00,44.8,41.2,30.52,SE,132,1.0,3.0,87,0.00,,,0.00,37,Wunderground v.1.15,2013-09-17 12:48:00,
2013-09-17 08:49:00,45.0,41.4,30.52,NNE,18,1.0,3.0,87,0.00,,,0.00,37,Wunderground v.1.15,2013-09-17 12:49:00,
2013-09-17 08:50:00,45.1,40.6,30.52,NNW,329,1.0,3.0,84,0.00,,,0.00,37,Wunderground v.1.15,2013-09-17 12:50:00,
2013-09-17 08:53:00,45.4,40.8,30.52,SSW,193,1.0,5.0,84,0.00,,,0.00,37,Wunderground v.1.15,2013-09-17 12:53:00,
2013-09-17 08:54:00,45.5,40.6,30.52,SSW,211,2.0,6.0,83,0.00,,,0.00,37,Wunderground v.1.15,2013-09-17 12:54:00,
2013-09-17 08:55:00,45.5,40.0,30.52,SW,234,2.0,6.0,81,0.00,,,0.00,37,Wunderground v.1.15,2013-09-17 12:55:00,
2013-09-17 08:56:00,45.6,39.8,30.52,South,190,2.0,6.0,80,0.00,,,0.00,37,Wunderground v.1.15,2013-09-17 12:56:00,
2013-09-17 08:59:00,45.7,39.9,30.52,North,5,3.0,6.0,80,0.00,,,0.00,37,Wunderground v.1.15,2013-09-17 12:59:00,
2013-09-17 09:00:00,45.9,40.1,30.52,South,169,3.0,3.0,80,0.00,,,0.00,37,Wunderground v.1.15,2013-09-17 13:00:00,
2013-09-17 09:01:00,45.9,40.4,30.52,South,171,3.0,3.0,81,0.00,,,0.00,62,Wunderground v.1.15,2013-09-17 13:01:00,
2013-09-17 09:02:00,46.0,40.2,30.52,South,182,3.0,3.0,80,0.00,,,0.00,62,Wunderground v.1.15,2013-09-17 13:02:00,
2013-09-17 09:05:00,46.4,40.9,30.52,SW,215,2.0,3.0,81,0.00,,,0.00,376,Wunderground v.1.15,2013-09-17 13:05:00,
2013-09-17 09:06:00,46.5,40.3,30.52,South,186,2.0,3.0,79,0.00,,,0.00,380,Wunderground v.1.15,2013-09-17 13:06:00,
2013-09-17 09:08:00,46.6,40.4,30.52,SSE,150,1.0,3.0,79,0.00,,,0.00,387,Wunderground v.1.15,2013-09-17 13:08:00,
2013-09-17 09:12:00,47.1,40.9,30.52,SSW,209,2.0,5.0,79,0.00,,,0.00,399,Wunderground v.1.15,2013-09-17 13:12:00,
2013-09-17 09:14:00,47.2,41.0,30.52,SSW,197,3.0,5.0,79,0.00,,,0.00,404,Wunderground v.1.15,2013-09-17 13:14:00,
2013-09-17 09:17:00,47.3,40.8,30.53,South,188,4.0,5.0,78,0.00,,,0.00,415,Wunderground v.1.15,2013-09-17 13:17:00,
2013-09-17 09:19:00,47.5,41.0,30.53,SSE,167,4.0,5.0,78,0.00,,,0.00,420,Wunderground v.1.15,2013-09-17 13:19:00,
2013-09-17 09:21:00,47.6,40.7,30.53,SW,219,4.0,6.0,77,0.00,,,0.00,424,Wunderground v.1.15,2013-09-17 13:21:00,
2013-09-17 09:24:00,47.8,40.9,30.53,South,170,3.0,6.0,77,0.00,,,0.00,432,Wunderground v.1.15,2013-09-17 13:24:00,
2013-09-17 09:26:00,47.9,41.0,30.53,SE,132,3.0,6.0,77,0.00,,,0.00,439,Wunderground v.1.15,2013-09-17 13:26:00,
2013-09-17 09:28:00,48.1,41.2,30.53,South,185,3.0,6.0,77,0.00,,,0.00,446,Wunderground v.1.15,2013-09-17 13:28:00,
2013-09-17 09:29:00,48.1,40.9,30.53,SSE,156,3.0,6.0,76,0.00,,,0.00,448,Wunderground v.1.15,2013-09-17 13:29:00,
2013-09-17 09:30:00,48.1,41.2,30.53,SE,129,3.0,3.0,77,0.00,,,0.00,452,Wunderground v.1.15,2013-09-17 13:30:00,
2013-09-17 09:34:00,48.5,41.3,30.53,SW,232,3.0,4.0,76,0.00,,,0.00,462,Wunderground v.1.15,2013-09-17 13:34:00,
2013-09-17 09:36:00,48.6,41.4,30.53,South,188,3.0,6.0,76,0.00,,,0.00,468,Wunderground v.1.15,2013-09-17 13:36:00,
2013-09-17 09:37:00,48.6,41.4,30.53,South,179,3.0,6.0,76,0.00,,,0.00,471,Wunderground v.1.15,2013-09-17 13:37:00,
2013-09-17 09:39:00,48.6,41.0,30.53,SSE,164,3.0,6.0,75,0.00,,,0.00,476,Wunderground v.1.15,2013-09-17 13:39:00,
2013-09-17 09:43:00,49.1,41.9,30.53,South,175,2.0,2.0,76,0.00,,,0.00,487,Wunderground v.1.15,2013-09-17 13:43:00,
2013-09-17 09:44:00,49.2,42.0,30.53,SSE,153,2.0,2.0,76,0.00,,,0.00,487,Wunderground v.1.15,2013-09-17 13:44:00,
2013-09-17 09:45:00,49.4,42.1,30.53,South,179,2.0,2.0,76,0.00,,,0.00,494,Wunderground v.1.15,2013-09-17 13:45:00,
2013-09-17 09:46:00,49.6,42.0,30.53,WSW,238,1.0,2.0,75,0.00,,,0.00,496,Wunderground v.1.15,2013-09-17 13:46:00,
2013-09-17 09:48:00,49.8,41.8,30.53,SE,134,1.0,4.0,74,0.00,,,0.00,501,Wunderground v.1.15,2013-09-17 13:48:00,
2013-09-17 09:51:00,49.8,41.1,30.53,SSW,199,1.0,2.0,72,0.00,,,0.00,512,Wunderground v.1.15,2013-09-17 13:51:00,
2013-09-17 09:53:00,49.9,41.6,30.53,WSW,238,2.0,2.0,73,0.00,,,0.00,515,Wunderground v.1.15,2013-09-17 13:53:00,
2013-09-17 09:56:00,50.1,41.4,30.53,SE,136,2.0,4.0,72,0.00,,,0.00,520,Wunderground v.1.15,2013-09-17 13:56:00,
2013-09-17 09:57:00,50.1,41.4,30.53,SE,128,2.0,4.0,72,0.00,,,0.00,526,Wunderground v.1.15,2013-09-17 13:57:00,
2013-09-17 09:58:00,50.1,41.4,30.53,South,175,2.0,4.0,72,0.00,,,0.00,529,Wunderground v.1.15,2013-09-17 13:58:00,
2013-09-17 10:01:00,50.3,41.6,30.53,WSW,256,2.0,2.0,72,0.00,,,0.00,531,Wunderground v.1.15,2013-09-17 14:01:00,
2013-09-17 10:03:00,50.5,42.5,30.53,West,265,2.0,2.0,74,0.00,,,0.00,540,Wunderground v.1.15,2013-09-17 14:03:00,
2013-09-17 10:04:00,50.6,42.6,30.53,SE,144,2.0,2.0,74,0.00,,,0.00,541,Wunderground v.1.15,2013-09-17 14:04:00,
2013-09-17 10:07:00,50.7,42.0,30.53,WNW,290,2.0,4.0,72,0.00,,,0.00,550,Wunderground v.1.15,2013-09-17 14:07:00,
2013-09-17 10:08:00,50.7,41.6,30.53,WNW,302,2.0,4.0,71,0.00,,,0.00,550,Wunderground v.1.15,2013-09-17 14:08:00,
2013-09-17 10:09:00,50.7,42.0,30.53,NNW,328,2.0,4.0,72,0.00,,,0.00,555,Wunderground v.1.15,2013-09-17 14:09:00,
2013-09-17 10:11:00,50.8,41.7,30.54,NW,306,2.0,4.0,71,0.00,,,0.00,557,Wunderground v.1.15,2013-09-17 14:11:00,
2013-09-17 10:13:00,50.9,41.8,30.54,NW,324,2.0,4.0,71,0.00,,,0.00,563,Wunderground v.1.15,2013-09-17 14:13:00,
2013-09-17 10:14:00,50.9,41.8,30.54,NW,317,2.0,4.0,71,0.00,,,0.00,566,Wunderground v.1.15,2013-09-17 14:14:00,
2013-09-17 10:16:00,51.0,41.6,30.54,North,355,2.0,4.0,70,0.00,,,0.00,571,Wunderground v.1.15,2013-09-17 14:16:00,
2013-09-17 10:17:00,51.0,41.6,30.54,NNW,345,2.0,4.0,70,0.00,,,0.00,571,Wunderground v.1.15,2013-09-17 14:17:00,
2013-09-17 10:21:00,51.2,42.1,30.53,NW,325,2.0,3.0,71,0.00,,,0.00,584,Wunderground v.1.15,2013-09-17 14:21:00,
2013-09-17 10:25:00,51.3,41.5,30.53,WNW,291,2.0,5.0,69,0.00,,,0.00,591,Wunderground v.1.15,2013-09-17 14:25:00,
2013-09-17 10:28:00,51.4,41.9,30.53,WSW,250,2.0,5.0,70,0.00,,,0.00,598,Wunderground v.1.15,2013-09-17 14:28:00,
2013-09-17 10:29:00,51.5,42.0,30.53,ESE,113,2.0,5.0,70,0.00,,,0.00,598,Wunderground v.1.15,2013-09-17 14:29:00,
2013-09-17 10:30:00,51.6,41.8,30.53,ESE,113,2.0,2.0,69,0.00,,,0.00,601,Wunderground v.1.15,2013-09-17 14:30:00,
2013-09-17 10:31:00,51.7,41.9,30.53,ESE,113,2.0,2.0,69,0.00,,,0.00,603,Wunderground v.1.15,2013-09-17 14:31:00,
2013-09-17 10:37:00,52.3,42.8,30.53,NW,307,1.0,2.0,70,0.00,,,0.00,615,Wunderground v.1.15,2013-09-17 14:37:00,
2013-09-17 10:38:00,52.4,42.1,30.53,North,360,1.0,5.0,68,0.00,,,0.00,619,Wunderground v.1.15,2013-09-17 14:38:00,
2013-09-17 10:40:00,52.4,41.8,30.53,South,178,2.0,2.0,67,0.00,,,0.00,622,Wunderground v.1.15,2013-09-17 14:40:00,
2013-09-17 10:42:00,52.6,42.3,30.53,NW,315,2.0,2.0,68,0.00,,,0.00,629,Wunderground v.1.15,2013-09-17 14:42:00,
2013-09-17 10:43:00,52.8,42.5,30.53,NW,305,2.0,3.0,68,0.00,,,0.00,633,Wunderground v.1.15,2013-09-17 14:43:00,
2013-09-17 10:45:00,52.9,42.2,30.53,NNE,28,2.0,3.0,67,0.00,,,0.00,633,Wunderground v.1.15,2013-09-17 14:45:00,
2013-09-17 10:49:00,53.5,42.8,30.53,NNE,16,2.0,6.0,67,0.00,,,0.00,642,Wunderground v.1.15,2013-09-17 14:49:00,
2013-09-17 10:50:00,53.5,42.4,30.53,SW,216,2.0,2.0,66,0.00,,,0.00,643,Wunderground v.1.15,2013-09-17 14:50:00,
2013-09-17 10:51:00,53.6,42.5,30.53,NNE,31,2.0,2.0,66,0.00,,,0.00,645,Wunderground v.1.15,2013-09-17 14:51:00,
2013-09-17 10:52:00,53.7,42.6,30.53,SE,142,2.0,2.0,66,0.00,,,0.00,647,Wunderground v.1.15,2013-09-17 14:52:00,
2013-09-17 10:56:00,53.5,41.6,30.52,SSE,153,3.0,6.0,64,0.00,,,0.00,657,Wunderground v.1.15,2013-09-17 14:56:00,
2013-09-17 10:57:00,53.4,41.9,30.53,SSE,149,3.0,6.0,65,0.00,,,0.00,657,Wunderground v.1.15,2013-09-17 14:57:00,
2013-09-17 10:58:00,53.3,41.4,30.52,SSE,159,3.0,6.0,64,0.00,,,0.00,661,Wunderground v.1.15,2013-09-17 14:58:00,
2013-09-17 11:00:00,53.2,41.7,30.52,SSE,149,3.0,3.0,65,0.00,,,0.00,664,Wunderground v.1.15,2013-09-17 15:00:00,
2013-09-17 11:02:00,53.3,41.8,30.52,ESE,116,3.0,3.0,65,0.00,,,0.00,668,Wunderground v.1.15,2013-09-17 15:02:00,
2013-09-17 11:03:00,53.3,42.6,30.52,SSW,206,3.0,3.0,67,0.00,,,0.00,668,Wunderground v.1.15,2013-09-17 15:03:00,
2013-09-17 11:04:00,53.5,42.8,30.52,SE,131,3.0,3.0,67,0.00,,,0.00,668,Wunderground v.1.15,2013-09-17 15:04:00,
2013-09-17 11:07:00,53.7,43.0,30.52,South,184,3.0,5.0,67,0.00,,,0.00,679,Wunderground v.1.15,2013-09-17 15:07:00,
2013-09-17 11:09:00,53.8,43.1,30.52,South,178,3.0,8.0,67,0.00,,,0.00,682,Wunderground v.1.15,2013-09-17 15:09:00,
2013-09-17 11:10:00,53.9,42.8,30.52,South,172,3.0,3.0,66,0.00,,,0.00,682,Wunderground v.1.15,2013-09-17 15:10:00,
2013-09-17 11:12:00,53.9,42.4,30.52,SSE,163,3.0,4.0,65,0.00,,,0.00,682,Wunderground v.1.15,2013-09-17 15:12:00,
2013-09-17 11:13:00,53.9,42.4,30.52,SSW,192,3.0,4.0,65,0.00,,,0.00,686,Wunderground v.1.15,2013-09-17 15:13:00,
2013-09-17 11:14:00,53.9,42.4,30.52,NNE,19,3.0,4.0,65,0.00,,,0.00,686,Wunderground v.1.15,2013-09-17 15:14:00,
2013-09-17 11:17:00,53.9,42.0,30.52,NNE,30,3.0,4.0,64,0.00,,,0.00,693,Wunderground v.1.15,2013-09-17 15:17:00,
2013-09-17 11:22:00,54.4,42.9,30.52,SSE,157,2.0,5.0,65,0.00,,,0.00,700,Wunderground v.1.15,2013-09-17 15:22:00,
2013-09-17 11:23:00,54.5,42.6,30.52,SSE,156,2.0,5.0,64,0.00,,,0.00,705,Wunderground v.1.15,2013-09-17 15:23:00,
2013-09-17 11:24:00,54.5,43.0,30.52,SSE,156,2.0,5.0,65,0.00,,,0.00,705,Wunderground v.1.15,2013-09-17 15:24:00,
2013-09-17 11:25:00,54.6,42.7,30.52,NNW,344,2.0,5.0,64,0.00,,,0.00,703,Wunderground v.1.15,2013-09-17 15:25:00,
2013-09-17 11:29:00,55.0,42.6,30.51,ESE,109,2.0,5.0,63,0.00,,,0.00,708,Wunderground v.1.15,2013-09-17 15:29:00,
2013-09-17 11:30:00,55.2,42.8,30.51,SSE,163,3.0,5.0,63,0.00,,,0.00,712,Wunderground v.1.15,2013-09-17 15:30:00,
2013-09-17 11:33:00,55.5,42.3,30.51,SE,128,2.0,5.0,61,0.00,,,0.00,715,Wunderground v.1.15,2013-09-17 15:33:00,
2013-09-17 11:36:00,55.5,41.4,30.51,SW,226,3.0,8.0,59,0.00,,,0.00,722,Wunderground v.1.15,2013-09-17 15:36:00,
2013-09-17 11:37:00,55.4,40.9,30.51,South,188,3.0,8.0,58,0.00,,,0.00,722,Wunderground v.1.15,2013-09-17 15:37:00,
2013-09-17 11:40:00,55.1,40.1,30.51,South,189,5.0,5.0,57,0.00,,,0.00,724,Wunderground v.1.15,2013-09-17 15:40:00,
2013-09-17 11:42:00,55.2,41.1,30.51,SSW,195,5.0,5.0,59,0.00,,,0.00,726,Wunderground v.1.15,2013-09-17 15:42:00,
2013-09-17 11:45:00,55.4,41.3,30.51,SW,220,5.0,6.0,59,0.00,,,0.00,731,Wunderground v.1.15,2013-09-17 15:45:00,
2013-09-17 11:48:00,55.4,41.3,30.51,SSW,196,6.0,6.0,59,0.00,,,0.00,735,Wunderground v.1.15,2013-09-17 15:48:00,
2013-09-17 11:49:00,55.5,41.4,30.51,SSW,209,5.0,6.0,59,0.00,,,0.00,735,Wunderground v.1.15,2013-09-17 15:49:00,
2013-09-17 11:50:00,55.5,41.0,30.51,SSE,155,5.0,5.0,58,0.00,,,0.00,735,Wunderground v.1.15,2013-09-17 15:50:00,
2013-09-17 11:52:00,55.8,41.7,30.51,SSW,198,5.0,5.0,59,0.00,,,0.00,737,Wunderground v.1.15,2013-09-17 15:52:00,
2013-09-17 11:54:00,55.9,41.3,30.51,South,175,5.0,5.0,58,0.00,,,0.00,740,Wunderground v.1.15,2013-09-17 15:54:00,
2013-09-17 11:55:00,55.8,41.2,30.51,South,175,4.0,5.0,58,0.00,,,0.00,740,Wunderground v.1.15,2013-09-17 15:55:00,
2013-09-17 11:58:00,56.2,42.5,30.51,NNW,346,3.0,5.0,60,0.00,,,0.00,742,Wunderground v.1.15,2013-09-17 15:58:00,
2013-09-17 12:00:00,56.4,42.7,30.50,NNE,33,2.0,2.0,60,0.00,,,0.00,745,Wunderground v.1.15,2013-09-17 16:00:00,
2013-09-17 12:01:00,56.6,42.9,30.50,SSW,194,2.0,5.0,60,0.00,,,0.00,745,Wunderground v.1.15,2013-09-17 16:01:00,
2013-09-17 12:06:00,56.5,41.9,30.50,SE,126,4.0,8.0,58,0.00,,,0.00,752,Wunderground v.1.15,2013-09-17 16:06:00,
2013-09-17 12:07:00,56.5,41.4,30.50,SE,124,4.0,8.0,57,0.00,,,0.00,752,Wunderground v.1.15,2013-09-17 16:07:00,
2013-09-17 12:09:00,56.7,43.0,30.50,SSW,202,4.0,8.0,60,0.00,,,0.00,754,Wunderground v.1.15,2013-09-17 16:09:00,
2013-09-17 12:12:00,57.5,43.3,30.50,SE,146,4.0,7.0,59,0.00,,,0.00,758,Wunderground v.1.15,2013-09-17 16:12:00,
2013-09-17 12:14:00,58.0,43.3,30.50,SSW,211,3.0,7.0,58,0.00,,,0.00,761,Wunderground v.1.15,2013-09-17 16:14:00,
2013-09-17 12:17:00,58.0,42.4,30.50,South,181,3.0,7.0,56,0.00,,,0.00,763,Wunderground v.1.15,2013-09-17 16:17:00,
2013-09-17 12:18:00,58.0,43.3,30.50,NE,46,3.0,7.0,58,0.00,,,0.00,761,Wunderground v.1.15,2013-09-17 16:18:00,
2013-09-17 12:21:00,58.0,42.4,30.50,South,178,3.0,5.0,56,0.00,,,0.00,765,Wunderground v.1.15,2013-09-17 16:21:00,
2013-09-17 12:23:00,57.9,42.8,30.50,NNE,13,4.0,6.0,57,0.00,,,0.00,765,Wunderground v.1.15,2013-09-17 16:23:00,
2013-09-17 12:25:00,58.0,42.4,30.50,NW,306,3.0,6.0,56,0.00,,,0.00,761,Wunderground v.1.15,2013-09-17 16:25:00,
2013-09-17 12:27:00,58.0,42.4,30.50,South,190,3.0,6.0,56,0.00,,,0.00,761,Wunderground v.1.15,2013-09-17 16:27:00,
2013-09-17 12:29:00,58.0,42.4,30.50,SSW,207,3.0,6.0,56,0.00,,,0.00,765,Wunderground v.1.15,2013-09-17 16:29:00,
2013-09-17 12:31:00,57.9,42.3,30.50,SSW,192,3.0,4.0,56,0.00,,,0.00,766,Wunderground v.1.15,2013-09-17 16:31:00,
2013-09-17 12:32:00,57.8,42.7,30.50,NNW,348,3.0,4.0,57,0.00,,,0.00,766,Wunderground v.1.15,2013-09-17 16:32:00,
2013-09-17 12:34:00,58.1,43.8,30.50,SE,134,3.0,6.0,59,0.00,,,0.00,768,Wunderground v.1.15,2013-09-17 16:34:00,
2013-09-17 12:36:00,58.4,43.2,30.49,South,173,3.0,6.0,57,0.00,,,0.00,770,Wunderground v.1.15,2013-09-17 16:36:00,
2013-09-17 12:38:00,58.5,42.4,30.50,SSE,157,3.0,6.0,55,0.00,,,0.00,770,Wunderground v.1.15,2013-09-17 16:38:00,
2013-09-17 12:44:00,58.5,43.3,30.49,SSE,150,4.0,4.0,57,0.00,,,0.00,765,Wunderground v.1.15,2013-09-17 16:44:00,
2013-09-17 12:45:00,58.6,42.9,30.49,SE,138,3.0,4.0,56,0.00,,,0.00,768,Wunderground v.1.15,2013-09-17 16:45:00,
2013-09-17 12:46:00,58.6,42.9,30.49,WSW,250,3.0,4.0,56,0.00,,,0.00,772,Wunderground v.1.15,2013-09-17 16:46:00,
2013-09-17 12:48:00,58.7,42.6,30.49,SSE,150,3.0,5.0,55,0.00,,,0.00,770,Wunderground v.1.15,2013-09-17 16:48:00,
2013-09-17 12:51:00,59.1,42.9,30.49,SSW,194,2.0,4.0,55,0.00,,,0.00,770,Wunderground v.1.15,2013-09-17 16:51:00,
2013-09-17 12:54:00,59.4,43.7,30.49,SE,137,2.0,4.0,56,0.00,,,0.00,772,Wunderground v.1.15,2013-09-17 16:54:00,
2013-09-17 12:55:00,59.5,43.3,30.49,SSW,211,2.0,6.0,55,0.00,,,0.00,773,Wunderground v.1.15,2013-09-17 16:55:00,
2013-09-17 12:57:00,59.7,43.0,30.48,SE,125,3.0,6.0,54,0.00,,,0.00,775,Wunderground v.1.15,2013-09-17 16:57:00,
2013-09-17 13:00:00,59.8,44.5,30.49,SE,136,2.0,2.0,57,0.00,,,0.00,770,Wunderground v.1.15,2013-09-17 17:00:00,
2013-09-17 13:02:00,60.0,43.3,30.48,SSW,192,2.0,5.0,54,0.00,,,0.00,770,Wunderground v.1.15,2013-09-17 17:02:00,
2013-09-17 13:03:00,60.0,42.8,30.48,SE,140,3.0,5.0,53,0.00,,,0.00,772,Wunderground v.1.15,2013-09-17 17:03:00,
2013-09-17 13:04:00,60.1,43.9,30.49,South,190,3.0,5.0,55,0.00,,,0.00,772,Wunderground v.1.15,2013-09-17 17:04:00,
2013-09-17 13:06:00,60.4,43.7,30.48,SE,128,2.0,5.0,54,0.00,,,0.00,773,Wunderground v.1.15,2013-09-17 17:06:00,
2013-09-17 13:10:00,61.2,43.4,30.49,SSE,157,2.0,2.0,52,0.00,,,0.00,772,Wunderground v.1.15,2013-09-17 17:10:00,
2013-09-17 13:11:00,61.3,43.5,30.48,South,176,2.0,2.0,52,0.00,,,0.00,770,Wunderground v.1.15,2013-09-17 17:11:00,
2013-09-17 13:12:00,61.3,43.5,30.48,SSW,202,2.0,2.0,52,0.00,,,0.00,766,Wunderground v.1.15,2013-09-17 17:12:00,
2013-09-17 13:15:00,61.7,42.9,30.48,WNW,294,2.0,3.0,50,0.00,,,0.00,768,Wunderground v.1.15,2013-09-17 17:15:00,
2013-09-17 13:16:00,61.8,44.5,30.48,WNW,302,2.0,3.0,53,0.00,,,0.00,770,Wunderground v.1.15,2013-09-17 17:16:00,
2013-09-17 13:19:00,62.3,44.4,30.48,SE,142,2.0,6.0,52,0.00,,,0.00,772,Wunderground v.1.15,2013-09-17 17:19:00,
2013-09-17 13:20:00,62.4,43.0,30.48,SE,142,2.0,2.0,49,0.00,,,0.00,770,Wunderground v.1.15,2013-09-17 17:20:00,
2013-09-17 13:24:00,62.3,44.4,30.48,SE,144,2.0,2.0,52,0.00,,,0.00,766,Wunderground v.1.15,2013-09-17 17:24:00,
2013-09-17 13:25:00,62.3,42.3,30.48,SE,130,3.0,3.0,48,0.00,,,0.00,766,Wunderground v.1.15,2013-09-17 17:25:00,
2013-09-17 13:26:00,62.2,42.8,30.48,SE,135,3.0,3.0,49,0.00,,,0.00,768,Wunderground v.1.15,2013-09-17 17:26:00,
2013-09-17 13:27:00,62.0,42.6,30.48,SSE,150,3.0,3.0,49,0.00,,,0.00,766,Wunderground v.1.15,2013-09-17 17:27:00,
2013-09-17 13:29:00,61.9,43.6,30.48,West,266,3.0,3.0,51,0.00,,,0.00,765,Wunderground v.1.15,2013-09-17 17:29:00,
2013-09-17 13:31:00,62.0,44.2,30.48,NNW,333,3.0,4.0,52,0.00,,,0.00,765,Wunderground v.1.15,2013-09-17 17:31:00,
2013-09-17 13:36:00,62.1,44.8,30.47,WSW,243,2.0,4.0,53,0.00,,,0.00,761,Wunderground v.1.15,2013-09-17 17:36:00,
2013-09-17 13:37:00,62.2,44.3,30.47,ESE,116,2.0,4.0,52,0.00,,,0.00,761,Wunderground v.1.15,2013-09-17 17:37:00,
2013-09-17 13:39:00,62.4,43.5,30.47,West,279,2.0,5.0,50,0.00,,,0.00,759,Wunderground v.1.15,2013-09-17 17:39:00,
2013-09-17 13:41:00,62.4,43.0,30.47,NW,304,2.0,2.0,49,0.00,,,0.00,758,Wunderground v.1.15,2013-09-17 17:41:00,
2013-09-17 13:43:00,62.2,42.8,30.47,North,355,3.0,5.0,49,0.00,,,0.00,756,Wunderground v.1.15,2013-09-17 17:43:00,
2013-09-17 13:44:00,62.1,42.7,30.47,North,350,3.0,5.0,49,0.00,,,0.00,756,Wunderground v.1.15,2013-09-17 17:44:00,
2013-09-17 13:48:00,61.9,42.5,30.46,East,94,2.0,5.0,49,0.00,,,0.00,751,Wunderground v.1.15,2013-09-17 17:48:00,
2013-09-17 13:51:00,62.0,42.6,30.46,SE,142,2.0,2.0,49,0.00,,,0.00,749,Wunderground v.1.15,2013-09-17 17:51:00,
2013-09-17 13:52:00,62.1,43.2,30.46,ESE,120,2.0,3.0,50,0.00,,,0.00,749,Wunderground v.1.15,2013-09-17 17:52:00,
2013-09-17 13:55:00,62.5,42.0,30.46,ESE,122,3.0,8.0,47,0.00,,,0.00,745,Wunderground v.1.15,2013-09-17 17:55:00,
2013-09-17 13:57:00,62.6,42.6,30.46,SSE,148,3.0,8.0,48,0.00,,,0.00,742,Wunderground v.1.15,2013-09-17 17:57:00,
2013-09-17 13:58:00,62.7,42.7,30.46,SSE,148,3.0,8.0,48,0.00,,,0.00,742,Wunderground v.1.15,2013-09-17 17:58:00,
2013-09-17 14:01:00,62.9,41.8,30.46,ESE,118,3.0,7.0,46,0.00,,,0.00,738,Wunderground v.1.15,2013-09-17 18:01:00,
2013-09-17 14:03:00,62.9,41.8,30.46,North,360,3.0,7.0,46,0.00,,,0.00,737,Wunderground v.1.15,2013-09-17 18:03:00,
2013-09-17 14:05:00,62.8,42.3,30.46,NW,305,2.0,7.0,47,0.00,,,0.00,733,Wunderground v.1.15,2013-09-17 18:05:00,
2013-09-17 14:07:00,62.8,42.8,30.45,WNW,303,2.0,7.0,48,0.00,,,0.00,731,Wunderground v.1.15,2013-09-17 18:07:00,
2013-09-17 14:08:00,62.9,44.0,30.46,WNW,294,3.0,7.0,50,0.00,,,0.00,726,Wunderground v.1.15,2013-09-17 18:08:00,
2013-09-17 14:09:00,63.0,43.0,30.46,NNW,347,3.0,7.0,48,0.00,,,0.00,729,Wunderground v.1.15,2013-09-17 18:09:00,
2013-09-17 14:11:00,63.2,42.1,30.46,SW,223,2.0,3.0,46,0.00,,,0.00,726,Wunderground v.1.15,2013-09-17 18:11:00,
2013-09-17 14:12:00,63.2,42.1,30.46,WNW,286,2.0,4.0,46,0.00,,,0.00,722,Wunderground v.1.15,2013-09-17 18:12:00,
2013-09-17 14:14:00,63.2,41.5,30.45,SSE,163,2.0,4.0,45,0.00,,,0.00,721,Wunderground v.1.15,2013-09-17 18:14:00,
2013-09-17 14:17:00,63.2,41.5,30.45,South,182,2.0,5.0,45,0.00,,,0.00,719,Wunderground v.1.15,2013-09-17 18:17:00,
2013-09-17 14:18:00,63.0,41.3,30.45,SSW,200,3.0,5.0,45,0.00,,,0.00,719,Wunderground v.1.15,2013-09-17 18:18:00,
2013-09-17 14:19:00,63.0,41.3,30.45,SW,236,3.0,5.0,45,0.00,,,0.00,715,Wunderground v.1.15,2013-09-17 18:19:00,
2013-09-17 14:20:00,62.9,41.2,30.45,SSW,200,3.0,3.0,45,0.00,,,0.00,712,Wunderground v.1.15,2013-09-17 18:20:00,
2013-09-17 14:25:00,63.0,41.3,30.45,South,172,3.0,4.0,45,0.00,,,0.00,708,Wunderground v.1.15,2013-09-17 18:25:00,
2013-09-17 14:27:00,63.3,42.2,30.45,WNW,282,3.0,4.0,46,0.00,,,0.00,707,Wunderground v.1.15,2013-09-17 18:27:00,
2013-09-17 14:30:00,63.8,42.0,30.45,SSE,166,2.0,4.0,45,0.00,,,0.00,700,Wunderground v.1.15,2013-09-17 18:30:00,
2013-09-17 14:32:00,64.0,41.0,30.45,SSW,202,3.0,4.0,43,0.00,,,0.00,696,Wunderground v.1.15,2013-09-17 18:32:00,
2013-09-17 14:34:00,63.9,41.0,30.45,SSW,204,3.0,7.0,43,0.00,,,0.00,694,Wunderground v.1.15,2013-09-17 18:34:00,
2013-09-17 14:35:00,63.8,40.9,30.45,SE,144,3.0,7.0,43,0.00,,,0.00,693,Wunderground v.1.15,2013-09-17 18:35:00,
2013-09-17 14:38:00,63.7,41.4,30.44,SE,136,3.0,7.0,44,0.00,,,0.00,687,Wunderground v.1.15,2013-09-17 18:38:00,
2013-09-17 14:39:00,63.8,41.5,30.44,SE,142,3.0,7.0,44,0.00,,,0.00,687,Wunderground v.1.15,2013-09-17 18:39:00,
2013-09-17 14:42:00,64.4,42.0,30.44,South,188,3.0,5.0,44,0.00,,,0.00,682,Wunderground v.1.15,2013-09-17 18:42:00,
2013-09-17 14:44:00,64.3,40.7,30.44,SSW,192,3.0,5.0,42,0.00,,,0.00,679,Wunderground v.1.15,2013-09-17 18:44:00,
2013-09-17 14:46:00,64.2,41.2,30.44,South,180,3.0,5.0,43,0.00,,,0.00,679,Wunderground v.1.15,2013-09-17 18:46:00,
2013-09-17 14:48:00,64.1,41.1,30.44,SSW,196,3.0,7.0,43,0.00,,,0.00,673,Wunderground v.1.15,2013-09-17 18:48:00,
2013-09-17 14:49:00,64.0,41.0,30.44,South,186,4.0,8.0,43,0.00,,,0.00,670,Wunderground v.1.15,2013-09-17 18:49:00,
2013-09-17 14:54:00,63.7,40.2,30.44,South,173,4.0,5.0,42,0.00,,,0.00,661,Wunderground v.1.15,2013-09-17 18:54:00,
2013-09-17 14:57:00,63.7,40.8,30.44,SSE,152,4.0,5.0,43,0.00,,,0.00,654,Wunderground v.1.15,2013-09-17 18:57:00,
2013-09-17 14:59:00,63.9,41.5,30.43,South,188,4.0,6.0,44,0.00,,,0.00,652,Wunderground v.1.15,2013-09-17 18:59:00,
2013-09-17 15:02:00,64.3,41.3,30.43,SW,218,3.0,4.0,43,0.00,,,0.00,642,Wunderground v.1.15,2013-09-17 19:02:00,
2013-09-17 15:04:00,64.3,41.3,30.44,NW,320,3.0,4.0,43,0.00,,,0.00,642,Wunderground v.1.15,2013-09-17 19:04:00,
2013-09-17 15:05:00,64.3,40.7,30.43,NNE,12,3.0,4.0,42,0.00,,,0.00,638,Wunderground v.1.15,2013-09-17 19:05:00,
2013-09-17 15:06:00,64.3,41.3,30.43,South,180,3.0,5.0,43,0.00,,,0.00,635,Wunderground v.1.15,2013-09-17 19:06:00,
2013-09-17 15:07:00,64.3,40.7,30.43,South,179,3.0,5.0,42,0.00,,,0.00,635,Wunderground v.1.15,2013-09-17 19:07:00,
2013-09-17 15:08:00,64.4,41.4,30.43,SW,221,3.0,5.0,43,0.00,,,0.00,635,Wunderground v.1.15,2013-09-17 19:08:00,
2013-09-17 15:11:00,64.7,41.7,30.43,South,180,3.0,3.0,43,0.00,,,0.00,626,Wunderground v.1.15,2013-09-17 19:11:00,
2013-09-17 15:14:00,64.9,41.2,30.43,South,186,2.0,3.0,42,0.00,,,0.00,619,Wunderground v.1.15,2013-09-17 19:14:00,
2013-09-17 15:15:00,65.0,41.3,30.43,SSE,163,2.0,4.0,42,0.00,,,0.00,621,Wunderground v.1.15,2013-09-17 19:15:00,
2013-09-17 15:16:00,65.1,40.8,30.43,SE,140,2.0,4.0,41,0.00,,,0.00,621,Wunderground v.1.15,2013-09-17 19:16:00,
2013-09-17 15:19:00,65.3,41.0,30.43,SSW,205,2.0,4.0,41,0.00,,,0.00,612,Wunderground v.1.15,2013-09-17 19:19:00,
2013-09-17 15:20:00,65.3,41.0,30.43,SSE,164,3.0,4.0,41,0.00,,,0.00,608,Wunderground v.1.15,2013-09-17 19:20:00,
2013-09-17 15:22:00,65.1,40.2,30.43,SSW,195,3.0,6.0,40,0.00,,,0.00,605,Wunderground v.1.15,2013-09-17 19:22:00,
2013-09-17 15:23:00,64.9,40.0,30.43,NNE,32,4.0,6.0,40,0.00,,,0.00,603,Wunderground v.1.15,2013-09-17 19:23:00,
2013-09-17 15:24:00,64.8,39.9,30.43,NNE,18,4.0,6.0,40,0.00,,,0.00,601,Wunderground v.1.15,2013-09-17 19:24:00,
2013-09-17 15:27:00,64.6,39.7,30.43,North,349,4.0,6.0,40,0.00,,,0.00,592,Wunderground v.1.15,2013-09-17 19:27:00,
2013-09-17 15:29:00,64.6,40.4,30.42,South,175,3.0,6.0,41,0.00,,,0.00,585,Wunderground v.1.15,2013-09-17 19:29:00,
2013-09-17 15:30:00,64.7,40.4,30.42,SSE,163,3.0,3.0,41,0.00,,,0.00,585,Wunderground v.1.15,2013-09-17 19:30:00,
2013-09-17 15:33:00,64.8,40.5,30.42,SSW,202,2.0,7.0,41,0.00,,,0.00,578,Wunderground v.1.15,2013-09-17 19:33:00,
2013-09-17 15:34:00,64.6,39.7,30.42,South,173,3.0,7.0,40,0.00,,,0.00,578,Wunderground v.1.15,2013-09-17 19:34:00,
2013-09-17 15:36:00,64.5,40.3,30.42,SSW,205,3.0,7.0,41,0.00,,,0.00,571,Wunderground v.1.15,2013-09-17 19:36:00,
2013-09-17 15:37:00,64.4,40.2,30.42,SW,215,3.0,7.0,41,0.00,,,0.00,571,Wunderground v.1.15,2013-09-17 19:37:00,
2013-09-17 15:39:00,64.4,40.2,30.42,South,186,4.0,7.0,41,0.00,,,0.00,564,Wunderground v.1.15,2013-09-17 19:39:00,
2013-09-17 15:40:00,64.5,39.6,30.42,SSW,212,4.0,4.0,40,0.00,,,0.00,561,Wunderground v.1.15,2013-09-17 19:40:00,
2013-09-17 15:44:00,64.6,41.0,30.42,South,187,4.0,6.0,42,0.00,,,0.00,550,Wunderground v.1.15,2013-09-17 19:44:00,
2013-09-17 15:45:00,64.7,40.4,30.42,SSW,199,4.0,6.0,41,0.00,,,0.00,548,Wunderground v.1.15,2013-09-17 19:45:00,
2013-09-17 15:47:00,64.8,39.9,30.42,SE,130,4.0,6.0,40,0.00,,,0.00,545,Wunderground v.1.15,2013-09-17 19:47:00,
2013-09-17 15:48:00,64.9,40.0,30.42,South,169,4.0,6.0,40,0.00,,,0.00,540,Wunderground v.1.15,2013-09-17 19:48:00,
2013-09-17 15:53:00,65.2,39.6,30.42,SSW,198,3.0,5.0,39,0.00,,,0.00,529,Wunderground v.1.15,2013-09-17 19:53:00,
2013-09-17 15:56:00,65.2,39.6,30.41,South,173,3.0,6.0,39,0.00,,,0.00,524,Wunderground v.1.15,2013-09-17 19:56:00,
2013-09-17 15:58:00,65.1,39.5,30.41,SSE,159,3.0,6.0,39,0.00,,,0.00,517,Wunderground v.1.15,2013-09-17 19:58:00,
2013-09-17 16:00:00,65.0,40.1,30.41,SSE,167,4.0,5.0,40,0.00,,,0.00,510,Wunderground v.1.15,2013-09-17 20:00:00,
2013-09-17 16:01:00,64.9,39.3,30.41,SSW,211,4.0,5.0,39,0.00,,,0.00,506,Wunderground v.1.15,2013-09-17 20:01:00,
2013-09-17 16:02:00,64.9,39.3,30.41,SSW,208,4.0,6.0,39,0.00,,,0.00,504,Wunderground v.1.15,2013-09-17 20:02:00,
2013-09-17 16:05:00,64.7,39.8,30.41,South,181,4.0,6.0,40,0.00,,,0.00,497,Wunderground v.1.15,2013-09-17 20:05:00,
2013-09-17 16:09:00,64.6,40.4,30.41,SSW,201,5.0,6.0,41,0.00,,,0.00,487,Wunderground v.1.15,2013-09-17 20:09:00,
2013-09-17 16:12:00,64.6,39.7,30.41,South,187,4.0,5.0,40,0.00,,,0.00,461,Wunderground v.1.15,2013-09-17 20:12:00,
2013-09-17 16:14:00,64.6,39.7,30.41,South,178,4.0,5.0,40,0.00,,,0.00,69,Wunderground v.1.15,2013-09-17 20:14:00,
2013-09-17 16:15:00,64.6,39.7,30.41,SSW,209,4.0,5.0,40,0.00,,,0.00,53,Wunderground v.1.15,2013-09-17 20:15:00,
2013-09-17 16:16:00,64.7,40.4,30.41,South,169,4.0,5.0,41,0.00,,,0.00,47,Wunderground v.1.15,2013-09-17 20:16:00,
2013-09-17 16:19:00,64.7,39.2,30.41,South,191,4.0,5.0,39,0.00,,,0.00,44,Wunderground v.1.15,2013-09-17 20:19:00,
2013-09-17 16:23:00,64.6,39.7,30.41,SSW,207,4.0,6.0,40,0.00,,,0.00,86,Wunderground v.1.15,2013-09-17 20:23:00,
2013-09-17 16:24:00,64.6,39.7,30.41,SSW,209,4.0,6.0,40,0.00,,,0.00,49,Wunderground v.1.15,2013-09-17 20:24:00,
2013-09-17 16:26:00,64.8,39.9,30.41,SW,229,4.0,6.0,40,0.00,,,0.00,162,Wunderground v.1.15,2013-09-17 20:26:00,
2013-09-17 16:27:00,64.8,39.2,30.41,SSW,198,4.0,6.0,39,0.00,,,0.00,167,Wunderground v.1.15,2013-09-17 20:27:00,
2013-09-17 16:28:00,64.9,38.7,30.41,North,355,4.0,6.0,38,0.00,,,0.00,250,Wunderground v.1.15,2013-09-17 20:28:00,
2013-09-17 16:30:00,64.9,38.7,30.41,WNW,298,3.0,3.0,38,0.00,,,0.00,33,Wunderground v.1.15,2013-09-17 20:30:00,
2013-09-17 16:31:00,64.9,39.3,30.41,SE,144,3.0,3.0,39,0.00,,,0.00,33,Wunderground v.1.15,2013-09-17 20:31:00,
2013-09-17 16:33:00,64.9,37.3,30.41,South,187,3.0,3.0,36,0.00,,,0.00,33,Wunderground v.1.15,2013-09-17 20:33:00,
2013-09-17 16:37:00,64.8,38.6,30.41,SE,138,2.0,3.0,38,0.00,,,0.00,32,Wunderground v.1.15,2013-09-17 20:37:00,
2013-09-17 16:38:00,64.8,38.6,30.41,SW,214,2.0,3.0,38,0.00,,,0.00,32,Wunderground v.1.15,2013-09-17 20:38:00,
2013-09-17 16:41:00,64.9,39.3,30.41,SW,215,1.0,1.0,39,0.00,,,0.00,32,Wunderground v.1.15,2013-09-17 20:41:00,
2013-09-17 16:43:00,64.9,38.7,30.41,North,355,1.0,5.0,38,0.00,,,0.00,30,Wunderground v.1.15,2013-09-17 20:43:00,
2013-09-17 16:44:00,65.0,38.8,30.41,South,184,1.0,5.0,38,0.00,,,0.00,30,Wunderground v.1.15,2013-09-17 20:44:00,
2013-09-17 16:45:00,65.0,38.8,30.40,SSW,204,1.0,5.0,38,0.00,,,0.00,30,Wunderground v.1.15,2013-09-17 20:45:00,
2013-09-17 16:47:00,65.0,38.8,30.40,South,181,2.0,5.0,38,0.00,,,0.00,30,Wunderground v.1.15,2013-09-17 20:47:00,
2013-09-17 16:49:00,64.9,39.3,30.40,NW,321,1.0,5.0,39,0.00,,,0.00,30,Wunderground v.1.15,2013-09-17 20:49:00,
2013-09-17 16:51:00,64.9,38.7,30.40,South,172,2.0,2.0,38,0.00,,,0.00,30,Wunderground v.1.15,2013-09-17 20:51:00,
2013-09-17 16:52:00,64.9,38.7,30.40,South,172,2.0,2.0,38,0.00,,,0.00,30,Wunderground v.1.15,2013-09-17 20:52:00,
2013-09-17 16:54:00,64.9,38.7,30.40,South,190,1.0,2.0,38,0.00,,,0.00,30,Wunderground v.1.15,2013-09-17 20:54:00,
2013-09-17 16:55:00,64.9,38.7,30.40,SSE,167,1.0,2.0,38,0.00,,,0.00,30,Wunderground v.1.15,2013-09-17 20:55:00,
2013-09-17 16:56:00,64.8,38.6,30.40,SSW,203,1.0,3.0,38,0.00,,,0.00,30,Wunderground v.1.15,2013-09-17 20:56:00,
2013-09-17 16:58:00,64.8,38.6,30.40,SSW,207,1.0,3.0,38,0.00,,,0.00,30,Wunderground v.1.15,2013-09-17 20:58:00,
2013-09-17 17:01:00,64.8,39.9,30.40,West,260,2.0,8.0,40,0.00,,,0.00,30,Wunderground v.1.15,2013-09-17 21:01:00,
2013-09-17 17:02:00,64.8,39.2,30.40,South,188,2.0,8.0,39,0.00,,,0.00,30,Wunderground v.1.15,2013-09-17 21:02:00,
2013-09-17 17:03:00,64.8,39.2,30.40,SW,215,3.0,8.0,39,0.00,,,0.00,30,Wunderground v.1.15,2013-09-17 21:03:00,
2013-09-17 17:06:00,64.9,39.3,30.40,SSW,194,3.0,8.0,39,0.00,,,0.00,30,Wunderground v.1.15,2013-09-17 21:06:00,
2013-09-17 17:09:00,64.8,39.2,30.40,SW,230,4.0,8.0,39,0.00,,,0.00,28,Wunderground v.1.15,2013-09-17 21:09:00,
2013-09-17 17:11:00,64.8,39.2,30.40,SSW,194,4.0,5.0,39,0.00,,,0.00,28,Wunderground v.1.15,2013-09-17 21:11:00,
2013-09-17 17:12:00,64.8,39.2,30.40,NNE,17,4.0,5.0,39,0.00,,,0.00,28,Wunderground v.1.15,2013-09-17 21:12:00,
2013-09-17 17:13:00,64.8,39.2,30.40,NNW,329,4.0,5.0,39,0.00,,,0.00,28,Wunderground v.1.15,2013-09-17 21:13:00,
2013-09-17 17:15:00,64.8,38.6,30.40,WNW,288,3.0,5.0,38,0.00,,,0.00,28,Wunderground v.1.15,2013-09-17 21:15:00,
2013-09-17 17:18:00,64.9,38.7,30.40,WNW,288,2.0,5.0,38,0.00,,,0.00,28,Wunderground v.1.15,2013-09-17 21:18:00,
2013-09-17 17:19:00,64.8,39.2,30.40,SW,236,1.0,5.0,39,0.00,,,0.00,28,Wunderground v.1.15,2013-09-17 21:19:00,
2013-09-17 17:20:00,64.9,39.3,30.40,NNW,335,1.0,1.0,39,0.00,,,0.00,28,Wunderground v.1.15,2013-09-17 21:20:00,
2013-09-17 17:24:00,65.0,39.4,30.40,WNW,292,1.0,2.0,39,0.00,,,0.00,28,Wunderground v.1.15,2013-09-17 21:24:00,
2013-09-17 17:25:00,65.1,39.5,30.40,NNW,345,1.0,2.0,39,0.00,,,0.00,28,Wunderground v.1.15,2013-09-17 21:25:00,
2013-09-17 17:27:00,65.2,38.9,30.39,WSW,245,1.0,2.0,38,0.00,,,0.00,28,Wunderground v.1.15,2013-09-17 21:27:00,
2013-09-17 17:31:00,65.2,38.3,30.40,NNW,330,1.0,3.0,37,0.00,,,0.00,26,Wunderground v.1.15,2013-09-17 21:31:00,
2013-09-17 17:32:00,65.2,38.3,30.40,NW,314,2.0,3.0,37,0.00,,,0.00,26,Wunderground v.1.15,2013-09-17 21:32:00,
2013-09-17 17:35:00,65.2,38.9,30.40,SSE,167,2.0,5.0,38,0.00,,,0.00,26,Wunderground v.1.15,2013-09-17 21:35:00,
2013-09-17 17:36:00,65.1,38.8,30.40,SSE,167,2.0,5.0,38,0.00,,,0.00,28,Wunderground v.1.15,2013-09-17 21:36:00,
2013-09-17 17:40:00,65.1,38.8,30.40,SSW,206,2.0,2.0,38,0.00,,,0.00,28,Wunderground v.1.15,2013-09-17 21:40:00,
2013-09-17 17:41:00,65.0,38.8,30.39,SSW,194,2.0,2.0,38,0.00,,,0.00,26,Wunderground v.1.15,2013-09-17 21:41:00,
2013-09-17 17:42:00,65.0,38.8,30.39,SSW,196,2.0,7.0,38,0.00,,,0.00,26,Wunderground v.1.15,2013-09-17 21:42:00,
2013-09-17 17:44:00,64.9,38.7,30.39,South,191,3.0,7.0,38,0.00,,,0.00,26,Wunderground v.1.15,2013-09-17 21:44:00,
2013-09-17 17:47:00,64.9,38.7,30.39,SSW,203,3.0,7.0,38,0.00,,,0.00,25,Wunderground v.1.15,2013-09-17 21:47:00,
2013-09-17 17:49:00,64.9,39.3,30.39,SSW,204,3.0,7.0,39,0.00,,,0.00,25,Wunderground v.1.15,2013-09-17 21:49:00,
2013-09-17 17:50:00,64.9,38.7,30.39,SSW,209,4.0,4.0,38,0.00,,,0.00,25,Wunderground v.1.15,2013-09-17 21:50:00,
2013-09-17 17:54:00,64.9,39.3,30.40,SSW,198,3.0,4.0,39,0.00,,,0.00,25,Wunderground v.1.15,2013-09-17 21:54:00,
2013-09-17 17:56:00,64.9,39.3,30.40,SSW,202,3.0,4.0,39,0.00,,,0.00,25,Wunderground v.1.15,2013-09-17 21:56:00,
2013-09-17 17:59:00,64.9,39.3,30.40,NW,305,3.0,4.0,39,0.00,,,0.00,25,Wunderground v.1.15,2013-09-17 21:59:00,
2013-09-17 18:02:00,64.9,39.3,30.39,North,355,2.0,2.0,39,0.00,,,0.00,25,Wunderground v.1.15,2013-09-17 22:02:00,
2013-09-17 18:03:00,64.9,39.3,30.39,North,5,2.0,2.0,39,0.00,,,0.00,23,Wunderground v.1.15,2013-09-17 22:03:00,
2013-09-17 18:06:00,65.0,39.4,30.38,South,177,2.0,2.0,39,0.00,,,0.00,23,Wunderground v.1.15,2013-09-17 22:06:00,
2013-09-17 18:09:00,65.0,39.4,30.38,South,190,1.0,6.0,39,0.00,,,0.00,23,Wunderground v.1.15,2013-09-17 22:09:00,
2013-09-17 18:11:00,64.9,39.3,30.37,SSW,200,2.0,4.0,39,0.00,,,0.00,23,Wunderground v.1.15,2013-09-17 22:11:00,
2013-09-17 18:14:00,64.8,39.9,30.37,South,185,2.0,4.0,40,0.00,,,0.00,21,Wunderground v.1.15,2013-09-17 22:14:00,
2013-09-17 18:15:00,64.7,39.8,30.37,SSW,203,2.0,5.0,40,0.00,,,0.00,21,Wunderground v.1.15,2013-09-17 22:15:00,
2013-09-17 18:18:00,64.7,39.8,30.37,SSW,194,3.0,5.0,40,0.00,,,0.00,21,Wunderground v.1.15,2013-09-17 22:18:00,
2013-09-17 18:19:00,64.7,39.8,30.37,SSW,194,2.0,5.0,40,0.00,,,0.00,21,Wunderground v.1.15,2013-09-17 22:19:00,
2013-09-17 18:20:00,64.7,39.8,30.37,SSW,205,2.0,2.0,40,0.00,,,0.00,21,Wunderground v.1.15,2013-09-17 22:20:00,
2013-09-17 18:22:00,64.7,39.8,30.37,WNW,296,2.0,2.0,40,0.00,,,0.00,19,Wunderground v.1.15,2013-09-17 22:22:00,
2013-09-17 18:23:00,64.7,39.2,30.37,WNW,296,2.0,2.0,39,0.00,,,0.00,19,Wunderground v.1.15,2013-09-17 22:23:00,
2013-09-17 18:26:00,64.9,40.0,30.38,NW,320,1.0,2.0,40,0.00,,,0.00,19,Wunderground v.1.15,2013-09-17 22:26:00,
2013-09-17 18:27:00,65.0,39.4,30.38,East,80,1.0,2.0,39,0.00,,,0.00,19,Wunderground v.1.15,2013-09-17 22:27:00,
2013-09-17 18:28:00,65.0,39.4,30.38,ENE,61,1.0,2.0,39,0.00,,,0.00,19,Wunderground v.1.15,2013-09-17 22:28:00,
2013-09-17 18:29:00,65.1,39.5,30.38,NNE,30,1.0,2.0,39,0.00,,,0.00,19,Wunderground v.1.15,2013-09-17 22:29:00,
2013-09-17 18:31:00,65.2,39.6,30.39,SW,221,1.0,2.0,39,0.00,,,0.00,23,Wunderground v.1.15,2013-09-17 22:31:00,
2013-09-17 18:34:00,65.1,40.2,30.39,South,190,1.0,4.0,40,0.00,,,0.00,18,Wunderground v.1.15,2013-09-17 22:34:00,
2013-09-17 18:35:00,65.1,40.2,30.39,South,190,1.0,4.0,40,0.00,,,0.00,18,Wunderground v.1.15,2013-09-17 22:35:00,
2013-09-17 18:36:00,65.0,40.1,30.39,SW,219,1.0,4.0,40,0.00,,,0.00,18,Wunderground v.1.15,2013-09-17 22:36:00,
2013-09-17 18:40:00,64.8,39.9,30.39,SSW,209,2.0,2.0,40,0.00,,,0.00,16,Wunderground v.1.15,2013-09-17 22:40:00,
2013-09-17 18:41:00,64.8,39.9,30.39,SSW,208,2.0,2.0,40,0.00,,,0.00,16,Wunderground v.1.15,2013-09-17 22:41:00,
2013-09-17 18:43:00,64.7,39.8,30.39,SSW,213,2.0,4.0,40,0.00,,,0.00,16,Wunderground v.1.15,2013-09-17 22:43:00,
2013-09-17 18:45:00,64.5,39.6,30.39,SSW,205,2.0,4.0,40,0.00,,,0.00,14,Wunderground v.1.15,2013-09-17 22:45:00,
2013-09-17 18:47:00,64.5,40.3,30.39,NNW,331,2.0,4.0,41,0.00,,,0.00,14,Wunderground v.1.15,2013-09-17 22:47:00,
2013-09-17 18:48:00,64.4,40.2,30.39,NNW,331,2.0,4.0,41,0.00,,,0.00,14,Wunderground v.1.15,2013-09-17 22:48:00,
2013-09-17 18:49:00,64.4,40.2,30.39,NNW,331,2.0,4.0,41,0.00,,,0.00,14,Wunderground v.1.15,2013-09-17 22:49:00,
2013-09-17 18:54:00,64.3,40.1,30.39,SW,217,1.0,2.0,41,0.00,,,0.00,12,Wunderground v.1.15,2013-09-17 22:54:00,
2013-09-17 18:56:00,64.2,40.0,30.39,SSW,205,1.0,4.0,41,0.00,,,0.00,11,Wunderground v.1.15,2013-09-17 22:56:00,
2013-09-17 19:00:00,63.9,39.7,30.39,SW,215,2.0,2.0,41,0.00,,,0.00,7,Wunderground v.1.15,2013-09-17 23:00:00,
2013-09-17 19:01:00,63.9,40.3,30.39,SSW,200,2.0,4.0,42,0.00,,,0.00,7,Wunderground v.1.15,2013-09-17 23:01:00,
2013-09-17 19:02:00,63.8,39.6,30.39,SSW,202,2.0,4.0,41,0.00,,,0.00,7,Wunderground v.1.15,2013-09-17 23:02:00,
2013-09-17 19:09:00,63.4,41.1,30.39,WSW,256,1.0,4.0,44,0.00,,,0.00,5,Wunderground v.1.15,2013-09-17 23:09:00,
2013-09-17 19:13:00,63.1,40.2,30.39,SW,225,1.0,2.0,43,0.00,,,0.00,0,Wunderground v.1.15,2013-09-17 23:13:00,
2013-09-17 19:14:00,63.0,40.7,30.39,SW,225,0.0,2.0,44,0.00,,,0.00,0,Wunderground v.1.15,2013-09-17 23:14:00,
2013-09-17 19:16:00,62.8,40.5,30.39,SW,216,1.0,2.0,44,0.00,,,0.00,0,Wunderground v.1.15,2013-09-17 23:16:00,
2013-09-17 19:19:00,62.6,41.5,30.39,WSW,250,1.0,2.0,46,0.00,,,0.00,0,Wunderground v.1.15,2013-09-17 23:19:00,
2013-09-17 19:22:00,62.4,41.3,30.39,NW,323,1.0,2.0,46,0.00,,,0.00,0,Wunderground v.1.15,2013-09-17 23:22:00,
2013-09-17 19:28:00,62.0,41.0,30.39,West,261,1.0,2.0,46,0.00,,,0.00,0,Wunderground v.1.15,2013-09-17 23:28:00,
2013-09-17 19:29:00,62.0,41.0,30.39,West,271,1.0,2.0,46,0.00,,,0.00,0,Wunderground v.1.15,2013-09-17 23:29:00,
2013-09-17 19:31:00,61.9,40.9,30.39,WSW,247,1.0,1.0,46,0.00,,,0.00,0,Wunderground v.1.15,2013-09-17 23:31:00,
2013-09-17 19:34:00,61.7,41.3,30.39,WSW,247,0.0,1.0,47,0.00,,,0.00,0,Wunderground v.1.15,2013-09-17 23:34:00,
2013-09-17 19:35:00,61.7,41.3,30.39,WSW,247,1.0,1.0,47,0.00,,,0.00,0,Wunderground v.1.15,2013-09-17 23:35:00,
2013-09-17 19:39:00,61.5,40.5,30.39,SW,217,1.0,2.0,46,0.00,,,0.00,0,Wunderground v.1.15,2013-09-17 23:39:00,
2013-09-17 19:40:00,61.5,40.5,30.39,WSW,241,1.0,1.0,46,0.00,,,0.00,0,Wunderground v.1.15,2013-09-17 23:40:00,
2013-09-17 19:45:00,61.4,40.4,30.39,SW,217,1.0,2.0,46,0.00,,,0.00,0,Wunderground v.1.15,2013-09-17 23:45:00,
2013-09-17 19:46:00,61.4,40.4,30.39,SW,217,1.0,2.0,46,0.00,,,0.00,0,Wunderground v.1.15,2013-09-17 23:46:00,
2013-09-17 19:51:00,61.4,40.4,30.39,SW,217,1.0,2.0,46,0.00,,,0.00,0,Wunderground v.1.15,2013-09-17 23:51:00,
2013-09-17 19:52:00,61.4,40.4,30.39,SW,217,1.0,2.0,46,0.00,,,0.00,0,Wunderground v.1.15,2013-09-17 23:52:00,
2013-09-17 19:54:00,61.4,39.9,30.39,SW,217,1.0,2.0,45,0.00,,,0.00,0,Wunderground v.1.15,2013-09-17 23:54:00,
2013-09-17 19:56:00,61.4,40.4,30.39,SW,217,1.0,2.0,46,0.00,,,0.00,0,Wunderground v.1.15,2013-09-17 23:56:00,
2013-09-17 19:58:00,61.4,40.4,30.39,SW,217,1.0,2.0,46,0.00,,,0.00,0,Wunderground v.1.15,2013-09-17 23:58:00,
2013-09-17 19:59:00,61.3,40.3,30.39,SW,217,1.0,2.0,46,0.00,,,0.00,0,Wunderground v.1.15,2013-09-17 23:59:00,
2013-09-17 20:01:00,61.3,40.3,30.40,SW,217,1.0,1.0,46,0.00,,,0.00,0,Wunderground v.1.15,2013-09-18 00:01:00,
2013-09-17 20:02:00,61.2,40.8,30.39,SW,217,1.0,1.0,47,0.00,,,0.00,0,Wunderground v.1.15,2013-09-18 00:02:00,
2013-09-17 20:06:00,60.9,41.6,30.40,SW,217,1.0,1.0,49,0.00,,,0.00,0,Wunderground v.1.15,2013-09-18 00:06:00,
2013-09-17 20:08:00,60.8,42.0,30.40,SW,217,1.0,1.0,50,0.00,,,0.00,0,Wunderground v.1.15,2013-09-18 00:08:00,
2013-09-17 20:11:00,60.5,42.3,30.40,SW,217,0.0,0.0,51,0.00,,,0.00,0,Wunderground v.1.15,2013-09-18 00:11:00,
2013-09-17 20:12:00,60.4,42.2,30.40,SW,217,0.0,0.0,51,0.00,,,0.00,0,Wunderground v.1.15,2013-09-18 00:12:00,
2013-09-17 20:13:00,60.3,42.1,30.40,SW,217,0.0,0.0,51,0.00,,,0.00,0,Wunderground v.1.15,2013-09-18 00:13:00,
2013-09-17 20:14:00,60.2,42.5,30.40,SW,217,0.0,0.0,52,0.00,,,0.00,0,Wunderground v.1.15,2013-09-18 00:14:00,
2013-09-17 20:17:00,60.0,42.3,30.40,SW,217,0.0,0.0,52,0.00,,,0.00,0,Wunderground v.1.15,2013-09-18 00:17:00,
2013-09-17 20:20:00,59.7,42.5,30.40,SSW,201,0.0,2.0,53,0.00,,,0.00,0,Wunderground v.1.15,2013-09-18 00:20:00,
2013-09-17 20:21:00,59.6,42.9,30.40,SSW,201,0.0,2.0,54,0.00,,,0.00,0,Wunderground v.1.15,2013-09-18 00:21:00,
2013-09-17 20:23:00,59.4,43.2,30.40,SSW,201,0.0,2.0,55,0.00,,,0.00,0,Wunderground v.1.15,2013-09-18 00:23:00,
2013-09-17 20:28:00,58.9,43.7,30.40,SSW,201,1.0,2.0,57,0.00,,,0.00,0,Wunderground v.1.15,2013-09-18 00:28:00,
2013-09-17 20:30:00,58.7,44.4,30.40,SSW,192,1.0,2.0,59,0.00,,,0.00,0,Wunderground v.1.15,2013-09-18 00:30:00,
2013-09-17 20:31:00,58.6,44.3,30.40,South,180,1.0,2.0,59,0.00,,,0.00,0,Wunderground v.1.15,2013-09-18 00:31:00,
2013-09-17 20:37:00,57.8,44.0,30.40,South,188,1.0,2.0,60,0.00,,,0.00,0,Wunderground v.1.15,2013-09-18 00:37:00,
2013-09-17 20:39:00,57.6,44.2,30.40,South,188,1.0,2.0,61,0.00,,,0.00,0,Wunderground v.1.15,2013-09-18 00:39:00,
2013-09-17 20:41:00,57.4,44.1,30.40,South,188,1.0,1.0,61,0.00,,,0.00,0,Wunderground v.1.15,2013-09-18 00:41:00,
2013-09-17 20:44:00,57.2,44.3,30.40,SW,217,0.0,1.0,62,0.00,,,0.00,0,Wunderground v.1.15,2013-09-18 00:44:00,
2013-09-17 20:48:00,56.9,44.4,30.40,WSW,251,0.0,1.0,63,0.00,,,0.00,0,Wunderground v.1.15,2013-09-18 00:48:00,
2013-09-17 20:49:00,56.9,44.0,30.40,West,280,0.0,1.0,62,0.00,,,0.00,0,Wunderground v.1.15,2013-09-18 00:49:00,
2013-09-17 20:50:00,56.8,43.9,30.40,WNW,296,1.0,1.0,62,0.00,,,0.00,0,Wunderground v.1.15,2013-09-18 00:50:00,
2013-09-17 20:52:00,56.8,43.9,30.40,WNW,296,1.0,1.0,62,0.00,,,0.00,0,Wunderground v.1.15,2013-09-18 00:52:00,
2013-09-17 20:56:00,56.7,43.8,30.40,WNW,296,0.0,1.0,62,0.00,,,0.00,0,Wunderground v.1.15,2013-09-18 00:56:00,
2013-09-17 20:57:00,56.7,44.2,30.40,WNW,296,0.0,1.0,63,0.00,,,0.00,0,Wunderground v.1.15,2013-09-18 00:57:00,
2013-09-17 20:58:00,56.6,44.1,30.40,WNW,296,0.0,1.0,63,0.00,,,0.00,0,Wunderground v.1.15,2013-09-18 00:58:00,
2013-09-17 20:59:00,56.6,44.1,30.40,WNW,296,0.0,1.0,63,0.00,,,0.00,0,Wunderground v.1.15,2013-09-18 00:59:00,
2013-09-17 21:05:00,56.5,44.5,30.40,West,269,0.0,1.0,64,0.00,,,0.00,0,Wunderground v.1.15,2013-09-18 01:05:00,
2013-09-17 21:07:00,56.4,44.4,30.40,West,269,0.0,1.0,64,0.00,,,0.00,0,Wunderground v.1.15,2013-09-18 01:07:00,
2013-09-17 21:11:00,56.6,44.6,30.40,SW,227,0.0,0.0,64,0.00,,,0.00,0,Wunderground v.1.15,2013-09-18 01:11:00,
2013-09-17 21:13:00,56.6,44.6,30.40,SW,227,0.0,0.0,64,0.00,,,0.00,0,Wunderground v.1.15,2013-09-18 01:13:00,
2013-09-17 21:15:00,56.5,44.5,30.41,SW,227,0.0,0.0,64,0.00,,,0.00,0,Wunderground v.1.15,2013-09-18 01:15:00,
2013-09-17 21:19:00,56.5,44.9,30.41,SW,227,0.0,0.0,65,0.00,,,0.00,0,Wunderground v.1.15,2013-09-18 01:19:00,
2013-09-17 21:20:00,56.5,44.9,30.41,SW,227,0.0,1.0,65,0.00,,,0.00,0,Wunderground v.1.15,2013-09-18 01:20:00,
2013-09-17 21:22:00,56.5,44.9,30.40,SW,227,0.0,1.0,65,0.00,,,0.00,0,Wunderground v.1.15,2013-09-18 01:22:00,
2013-09-17 21:28:00,56.4,44.8,30.40,SW,227,0.0,1.0,65,0.00,,,0.00,0,Wunderground v.1.15,2013-09-18 01:28:00,
2013-09-17 21:29:00,56.4,44.8,30.40,SW,227,0.0,1.0,65,0.00,,,0.00,0,Wunderground v.1.15,2013-09-18 01:29:00,
2013-09-17 21:30:00,56.4,44.8,30.41,SW,227,0.0,0.0,65,0.00,,,0.00,0,Wunderground v.1.15,2013-09-18 01:30:00,
2013-09-17 21:31:00,56.3,44.7,30.41,SW,227,0.0,0.0,65,0.00,,,0.00,0,Wunderground v.1.15,2013-09-18 01:31:00,
2013-09-17 21:36:00,56.2,44.6,30.40,SW,227,0.0,1.0,65,0.00,,,0.00,0,Wunderground v.1.15,2013-09-18 01:36:00,
2013-09-17 21:39:00,56.3,44.7,30.41,SW,227,1.0,1.0,65,0.00,,,0.00,0,Wunderground v.1.15,2013-09-18 01:39:00,
2013-09-17 21:42:00,56.3,45.1,30.41,SW,227,1.0,1.0,66,0.00,,,0.00,0,Wunderground v.1.15,2013-09-18 01:42:00,
2013-09-17 21:44:00,56.2,45.0,30.41,SW,227,0.0,1.0,66,0.00,,,0.00,0,Wunderground v.1.15,2013-09-18 01:44:00,
2013-09-17 21:45:00,56.2,45.0,30.41,SW,227,0.0,1.0,66,0.00,,,0.00,0,Wunderground v.1.15,2013-09-18 01:45:00,
2013-09-17 21:51:00,55.9,45.1,30.41,SW,227,0.0,0.0,67,0.00,,,0.00,0,Wunderground v.1.15,2013-09-18 01:51:00,
2013-09-17 21:52:00,55.8,45.0,30.41,SW,227,0.0,0.0,67,0.00,,,0.00,0,Wunderground v.1.15,2013-09-18 01:52:00,
2013-09-17 21:55:00,55.5,45.1,30.41,SW,227,0.0,0.0,68,0.00,,,0.00,0,Wunderground v.1.15,2013-09-18 01:55:00,
2013-09-17 21:59:00,55.4,45.0,30.41,SW,227,0.0,2.0,68,0.00,,,0.00,0,Wunderground v.1.15,2013-09-18 01:59:00,
2013-09-17 22:01:00,55.3,44.9,30.41,SW,227,1.0,2.0,68,0.00,,,0.00,0,Wunderground v.1.15,2013-09-18 02:01:00,
2013-09-17 22:04:00,55.2,44.8,30.41,SW,227,1.0,2.0,68,0.00,,,0.00,0,Wunderground v.1.15,2013-09-18 02:04:00,
2013-09-17 22:05:00,55.1,45.1,30.41,SSW,213,1.0,2.0,69,0.00,,,0.00,0,Wunderground v.1.15,2013-09-18 02:05:00,
2013-09-17 22:08:00,54.8,44.8,30.41,SSW,200,1.0,2.0,69,0.00,,,0.00,0,Wunderground v.1.15,2013-09-18 02:08:00,
2013-09-17 22:13:00,54.3,45.1,30.41,SSW,202,1.0,2.0,71,0.00,,,0.00,0,Wunderground v.1.15,2013-09-18 02:13:00,
2013-09-17 22:15:00,54.1,44.9,30.41,SSW,202,1.0,2.0,71,0.00,,,0.00,0,Wunderground v.1.15,2013-09-18 02:15:00,
2013-09-17 22:20:00,53.8,45.7,30.41,SSW,202,1.0,1.0,74,0.00,,,0.00,0,Wunderground v.1.15,2013-09-18 02:20:00,
2013-09-17 22:21:00,53.7,45.6,30.41,SSW,202,1.0,1.0,74,0.00,,,0.00,0,Wunderground v.1.15,2013-09-18 02:21:00,
2013-09-17 22:23:00,53.7,46.0,30.41,SSW,202,1.0,1.0,75,0.00,,,0.00,0,Wunderground v.1.15,2013-09-18 02:23:00,
2013-09-17 22:27:00,53.5,45.8,30.41,SSW,202,1.0,1.0,75,0.00,,,0.00,0,Wunderground v.1.15,2013-09-18 02:27:00,
2013-09-17 22:29:00,53.4,45.7,30.41,SSW,202,1.0,1.0,75,0.00,,,0.00,0,Wunderground v.1.15,2013-09-18 02:29:00,
2013-09-17 22:31:00,53.4,46.0,30.41,SSW,202,1.0,1.0,76,0.00,,,0.00,0,Wunderground v.1.15,2013-09-18 02:31:00,
2013-09-17 22:32:00,53.3,45.9,30.41,SSW,202,1.0,1.0,76,0.00,,,0.00,0,Wunderground v.1.15,2013-09-18 02:32:00,
2013-09-17 22:35:00,53.2,45.8,30.41,SSW,202,0.0,1.0,76,0.00,,,0.00,0,Wunderground v.1.15,2013-09-18 02:35:00,
2013-09-17 22:36:00,53.2,45.5,30.41,SSW,202,0.0,1.0,75,0.00,,,0.00,0,Wunderground v.1.15,2013-09-18 02:36:00,
2013-09-17 22:41:00,53.0,45.6,30.42,SSW,202,0.0,0.0,76,0.00,,,0.00,0,Wunderground v.1.15,2013-09-18 02:41:00,
2013-09-17 22:42:00,52.9,45.5,30.42,SSW,202,0.0,1.0,76,0.00,,,0.00,0,Wunderground v.1.15,2013-09-18 02:42:00,
2013-09-17 22:47:00,52.8,45.4,30.42,SSW,202,0.0,1.0,76,0.00,,,0.00,0,Wunderground v.1.15,2013-09-18 02:47:00,
2013-09-17 22:49:00,52.8,45.8,30.42,SSW,202,0.0,1.0,77,0.00,,,0.00,0,Wunderground v.1.15,2013-09-18 02:49:00,
2013-09-17 22:50:00,52.7,45.7,30.42,SSW,202,0.0,1.0,77,0.00,,,0.00,0,Wunderground v.1.15,2013-09-18 02:50:00,
2013-09-17 22:51:00,52.7,45.7,30.42,SSW,202,0.0,1.0,77,0.00,,,0.00,0,Wunderground v.1.15,2013-09-18 02:51:00,
2013-09-17 22:55:00,52.4,45.4,30.42,SSW,202,0.0,1.0,77,0.00,,,0.00,0,Wunderground v.1.15,2013-09-18 02:55:00,
2013-09-17 22:56:00,52.4,45.4,30.42,SSW,202,1.0,1.0,77,0.00,,,0.00,0,Wunderground v.1.15,2013-09-18 02:56:00,
2013-09-17 22:59:00,52.3,45.3,30.42,SSW,202,1.0,1.0,77,0.00,,,0.00,0,Wunderground v.1.15,2013-09-18 02:59:00,
2013-09-17 23:00:00,52.3,45.3,30.42,SSW,202,1.0,1.0,77,0.00,,,0.00,0,Wunderground v.1.15,2013-09-18 03:00:00,
2013-09-17 23:03:00,52.2,45.2,30.42,SSW,202,1.0,1.0,77,0.00,,,0.00,0,Wunderground v.1.15,2013-09-18 03:03:00,
2013-09-17 23:04:00,52.2,45.2,30.42,SSW,202,1.0,1.0,77,0.00,,,0.00,0,Wunderground v.1.15,2013-09-18 03:04:00,
2013-09-17 23:09:00,52.1,45.1,30.42,SSW,202,0.0,1.0,77,0.00,,,0.00,0,Wunderground v.1.15,2013-09-18 03:09:00,
2013-09-17 23:10:00,52.1,45.1,30.42,SSW,202,0.0,1.0,77,0.00,,,0.00,0,Wunderground v.1.15,2013-09-18 03:10:00,
2013-09-17 23:11:00,52.1,45.1,30.42,SSW,202,0.0,1.0,77,0.00,,,0.00,0,Wunderground v.1.15,2013-09-18 03:11:00,
2013-09-17 23:14:00,52.1,45.1,30.42,SSW,202,1.0,2.0,77,0.00,,,0.00,0,Wunderground v.1.15,2013-09-18 03:14:00,
2013-09-17 23:18:00,52.1,45.1,30.42,SSW,202,1.0,2.0,77,0.00,,,0.00,0,Wunderground v.1.15,2013-09-18 03:18:00,
2013-09-17 23:19:00,52.1,45.1,30.42,SSW,202,1.0,2.0,77,0.00,,,0.00,0,Wunderground v.1.15,2013-09-18 03:19:00,
2013-09-17 23:24:00,52.1,45.4,30.42,SSW,202,1.0,1.0,78,0.00,,,0.00,0,Wunderground v.1.15,2013-09-18 03:24:00,
2013-09-17 23:25:00,52.0,45.4,30.42,SSW,202,1.0,1.0,78,0.00,,,0.00,0,Wunderground v.1.15,2013-09-18 03:25:00,
2013-09-17 23:28:00,51.9,45.3,30.41,SSW,202,1.0,1.0,78,0.00,,,0.00,0,Wunderground v.1.15,2013-09-18 03:28:00,
2013-09-17 23:29:00,51.8,45.2,30.42,SSW,202,1.0,1.0,78,0.00,,,0.00,0,Wunderground v.1.15,2013-09-18 03:29:00,
2013-09-17 23:32:00,51.7,45.1,30.41,SSW,202,0.0,1.0,78,0.00,,,0.00,0,Wunderground v.1.15,2013-09-18 03:32:00,
2013-09-17 23:36:00,51.5,45.2,30.41,SSW,202,0.0,1.0,79,0.00,,,0.00,0,Wunderground v.1.15,2013-09-18 03:36:00,
2013-09-17 23:37:00,51.5,45.2,30.42,SSW,202,0.0,1.0,79,0.00,,,0.00,0,Wunderground v.1.15,2013-09-18 03:37:00,
2013-09-17 23:40:00,51.3,45.0,30.41,SSW,202,0.0,0.0,79,0.00,,,0.00,0,Wunderground v.1.15,2013-09-18 03:40:00,
2013-09-17 23:42:00,51.2,45.2,30.41,SSW,202,0.0,0.0,80,0.00,,,0.00,0,Wunderground v.1.15,2013-09-18 03:42:00,
2013-09-17 23:43:00,51.2,45.2,30.41,SSW,202,0.0,0.0,80,0.00,,,0.00,0,Wunderground v.1.15,2013-09-18 03:43:00,
2013-09-17 23:45:00,51.1,45.1,30.41,SSW,202,0.0,0.0,80,0.00,,,0.00,0,Wunderground v.1.15,2013-09-18 03:45:00,
2013-09-17 23:48:00,51.0,45.4,30.41,SSW,202,0.0,0.0,81,0.00,,,0.00,0,Wunderground v.1.15,2013-09-18 03:48:00,
2013-09-17 23:49:00,51.0,45.4,30.41,SSW,202,0.0,0.0,81,0.00,,,0.00,0,Wunderground v.1.15,2013-09-18 03:49:00,
2013-09-17 23:52:00,50.8,45.2,30.41,SSW,202,0.0,0.0,81,0.00,,,0.00,0,Wunderground v.1.15,2013-09-18 03:52:00,
2013-09-17 23:54:00,50.7,45.1,30.41,SSW,202,0.0,0.0,81,0.00,,,0.00,0,Wunderground v.1.15,2013-09-18 03:54:00,
2013-09-17 23:55:00,50.7,45.1,30.41,SSW,202,0.0,0.0,81,0.00,,,0.00,0,Wunderground v.1.15,2013-09-18 03:55:00,
2013-09-17 23:57:00,50.6,45.0,30.41,SSW,202,0.0,0.0,81,0.00,,,0.00,0,Wunderground v.1.15,2013-09-18 03:57:00,